Time,TemperatureF,DewpointF,PressureIn,WindDirection,WindDirectionDegrees,WindSpeedMPH,WindSpeedGustMPH,Humidity,HourlyPrecipIn,Conditions,Clouds,dailyrainin,SoftwareType,DateUTC
2013-11-24 00:00:00,29.7,19.0,30.44,NNW,337,3.0,12.0,64,0.00,,,-99.99,WeatherLink 6.0.3,2013-11-24 05:00:00,
2013-11-24 00:01:00,29.6,18.9,30.44,West,278,3.0,3.0,64,0.00,,,0.00,Wunderground v.1.15,2013-11-24 05:01:00,
2013-11-24 00:02:00,29.6,18.9,30.44,NNW,342,2.0,3.0,64,0.00,,,0.00,Wunderground v.1.15,2013-11-24 05:02:00,
2013-11-24 00:05:00,29.5,18.8,30.44,NNW,345,0.0,3.0,64,0.00,,,0.00,Wunderground v.1.15,2013-11-24 05:05:00,
2013-11-24 00:07:00,29.4,18.7,30.44,NNW,342,3.0,3.0,64,0.00,,,0.00,Wunderground v.1.15,2013-11-24 05:07:00,
2013-11-24 00:10:00,29.3,19.3,30.44,NW,313,1.0,2.0,66,0.00,,,0.00,Wunderground v.1.15,2013-11-24 05:10:00,
2013-11-24 00:11:00,29.3,19.0,30.44,ESE,105,2.0,2.0,65,0.00,,,0.00,Wunderground v.1.15,2013-11-24 05:11:00,
2013-11-24 00:13:00,29.3,19.3,30.44,North,5,4.0,4.0,66,0.00,,,0.00,Wunderground v.1.15,2013-11-24 05:13:00,
2013-11-24 00:14:00,29.3,19.0,30.44,NNW,335,2.0,4.0,65,0.00,,,0.00,Wunderground v.1.15,2013-11-24 05:14:00,
2013-11-24 00:15:00,29.2,19.2,30.44,NW,314,4.0,4.0,66,0.00,,,0.00,Wunderground v.1.15,2013-11-24 05:15:00,
2013-11-24 00:18:00,29.2,19.2,30.44,NW,321,1.0,4.0,66,0.00,,,0.00,Wunderground v.1.15,2013-11-24 05:18:00,
2013-11-24 00:22:00,29.1,19.2,30.44,NNW,343,1.0,2.0,66,0.00,,,0.00,Wunderground v.1.15,2013-11-24 05:22:00,
2013-11-24 00:23:00,29.0,19.4,30.44,NNW,340,1.0,2.0,67,0.00,,,0.00,Wunderground v.1.15,2013-11-24 05:23:00,
2013-11-24 00:25:00,29.0,19.1,30.44,North,360,1.0,2.0,66,0.00,,,0.00,Wunderground v.1.15,2013-11-24 05:25:00,
2013-11-24 00:26:00,29.0,19.4,30.44,NNE,15,0.0,2.0,67,0.00,,,0.00,Wunderground v.1.15,2013-11-24 05:26:00,
2013-11-24 00:27:00,29.0,19.4,30.44,NW,306,2.0,2.0,67,0.00,,,0.00,Wunderground v.1.15,2013-11-24 05:27:00,
2013-11-24 00:31:00,28.9,19.3,30.44,NNW,337,2.0,9.0,67,0.00,,,-99.99,WeatherLink 6.0.3,2013-11-24 05:31:00,
2013-11-24 00:32:00,28.9,19.0,30.44,ENE,57,1.0,2.0,66,0.00,,,0.00,Wunderground v.1.15,2013-11-24 05:32:00,
2013-11-24 00:33:00,28.8,19.2,30.45,North,355,1.0,2.0,67,0.00,,,0.00,Wunderground v.1.15,2013-11-24 05:33:00,
2013-11-24 00:36:00,28.8,19.2,30.45,North,5,2.0,3.0,67,0.00,,,0.00,Wunderground v.1.15,2013-11-24 05:36:00,
2013-11-24 00:37:00,28.8,19.2,30.45,North,355,1.0,3.0,67,0.00,,,0.00,Wunderground v.1.15,2013-11-24 05:37:00,
2013-11-24 00:41:00,28.7,19.1,30.45,North,355,1.0,1.0,67,0.00,,,0.00,Wunderground v.1.15,2013-11-24 05:41:00,
2013-11-24 00:42:00,28.7,19.5,30.45,NNW,346,1.0,1.0,68,0.00,,,0.00,Wunderground v.1.15,2013-11-24 05:42:00,
2013-11-24 00:43:00,28.7,18.8,30.45,WSW,244,4.0,4.0,66,0.00,,,0.00,Wunderground v.1.15,2013-11-24 05:43:00,
2013-11-24 00:47:00,28.5,18.9,30.45,West,266,2.0,4.0,67,0.00,,,0.00,Wunderground v.1.15,2013-11-24 05:47:00,
2013-11-24 00:48:00,28.5,18.6,30.45,NE,40,1.0,4.0,66,0.00,,,0.00,Wunderground v.1.15,2013-11-24 05:48:00,
2013-11-24 00:49:00,28.5,18.9,30.45,North,355,2.0,2.0,67,0.00,,,0.00,Wunderground v.1.15,2013-11-24 05:49:00,
2013-11-24 00:55:00,28.4,18.5,30.45,NW,317,1.0,3.0,66,0.00,,,0.00,Wunderground v.1.15,2013-11-24 05:55:00,
2013-11-24 00:57:00,28.4,18.1,30.45,East,82,4.0,4.0,65,0.00,,,0.00,Wunderground v.1.15,2013-11-24 05:57:00,
2013-11-24 00:58:00,28.4,18.1,30.45,North,11,1.0,4.0,65,0.00,,,0.00,Wunderground v.1.15,2013-11-24 05:58:00,
2013-11-24 01:00:00,28.4,18.5,30.45,NE,50,1.0,2.0,66,0.00,,,0.00,Wunderground v.1.15,2013-11-24 06:00:00,
2013-11-24 01:01:00,28.4,18.5,30.45,North,0,2.0,10.0,66,0.00,,,-99.99,WeatherLink 6.0.3,2013-11-24 06:01:00,
2013-11-24 01:05:00,28.2,17.9,30.45,East,84,1.0,6.0,65,0.00,,,0.00,Wunderground v.1.15,2013-11-24 06:05:00,
2013-11-24 01:07:00,28.2,17.9,30.45,West,271,0.0,6.0,65,0.00,,,0.00,Wunderground v.1.15,2013-11-24 06:07:00,
2013-11-24 01:08:00,28.1,17.8,30.45,NNW,346,2.0,6.0,65,0.00,,,0.00,Wunderground v.1.15,2013-11-24 06:08:00,
2013-11-24 01:10:00,28.1,17.8,30.45,NNE,20,2.0,2.0,65,0.00,,,0.00,Wunderground v.1.15,2013-11-24 06:10:00,
2013-11-24 01:13:00,28.1,18.2,30.46,North,355,1.0,3.0,66,0.00,,,0.00,Wunderground v.1.15,2013-11-24 06:13:00,
2013-11-24 01:14:00,28.1,18.2,30.45,NE,44,1.0,3.0,66,0.00,,,0.00,Wunderground v.1.15,2013-11-24 06:14:00,
2013-11-24 01:15:00,28.0,18.1,30.45,North,355,2.0,3.0,66,0.00,,,0.00,Wunderground v.1.15,2013-11-24 06:15:00,
2013-11-24 01:17:00,28.0,18.1,30.45,NW,317,1.0,3.0,66,0.00,,,0.00,Wunderground v.1.15,2013-11-24 06:17:00,
2013-11-24 01:19:00,28.0,17.7,30.45,North,5,3.0,3.0,65,0.00,,,0.00,Wunderground v.1.15,2013-11-24 06:19:00,
2013-11-24 01:20:00,28.0,17.4,30.45,NNW,340,3.0,3.0,64,0.00,,,0.00,Wunderground v.1.15,2013-11-24 06:20:00,
2013-11-24 01:22:00,28.0,17.7,30.45,NW,319,1.0,3.0,65,0.00,,,0.00,Wunderground v.1.15,2013-11-24 06:22:00,
2013-11-24 01:23:00,28.0,17.7,30.45,WNW,298,2.0,3.0,65,0.00,,,0.00,Wunderground v.1.15,2013-11-24 06:23:00,
2013-11-24 01:24:00,28.0,17.7,30.45,WNW,295,0.0,3.0,65,0.00,,,0.00,Wunderground v.1.15,2013-11-24 06:24:00,
2013-11-24 01:25:00,27.9,17.6,30.46,NNW,332,2.0,3.0,65,0.00,,,0.00,Wunderground v.1.15,2013-11-24 06:25:00,
2013-11-24 01:26:00,27.9,17.6,30.46,ENE,65,1.0,3.0,65,0.00,,,0.00,Wunderground v.1.15,2013-11-24 06:26:00,
2013-11-24 01:28:00,27.9,17.3,30.45,NNE,21,1.0,3.0,64,0.00,,,0.00,Wunderground v.1.15,2013-11-24 06:28:00,
2013-11-24 01:29:00,27.9,17.3,30.46,NE,34,1.0,3.0,64,0.00,,,0.00,Wunderground v.1.15,2013-11-24 06:29:00,
2013-11-24 01:32:00,27.8,17.2,30.46,West,273,3.0,3.0,64,0.00,,,0.00,Wunderground v.1.15,2013-11-24 06:32:00,
2013-11-24 01:35:00,27.8,16.8,30.46,NW,323,3.0,4.0,63,0.00,,,0.00,Wunderground v.1.15,2013-11-24 06:35:00,
2013-11-24 01:36:00,27.7,17.1,30.46,WNW,294,3.0,4.0,64,0.00,,,0.00,Wunderground v.1.15,2013-11-24 06:36:00,
2013-11-24 01:37:00,27.7,17.1,30.46,North,355,1.0,4.0,64,0.00,,,0.00,Wunderground v.1.15,2013-11-24 06:37:00,
2013-11-24 01:38:00,27.7,17.1,30.46,ENE,72,1.0,4.0,64,0.00,,,0.00,Wunderground v.1.15,2013-11-24 06:38:00,
2013-11-24 01:42:00,27.6,16.6,30.46,NNW,337,0.0,4.0,63,0.00,,,0.00,Wunderground v.1.15,2013-11-24 06:42:00,
2013-11-24 01:43:00,27.6,16.6,30.46,NNW,339,2.0,4.0,63,0.00,,,0.00,Wunderground v.1.15,2013-11-24 06:43:00,
2013-11-24 01:44:00,27.6,17.0,30.46,NNW,338,2.0,4.0,64,0.00,,,0.00,Wunderground v.1.15,2013-11-24 06:44:00,
2013-11-24 01:45:00,27.6,16.6,30.46,NNW,342,0.0,4.0,63,0.00,,,0.00,Wunderground v.1.15,2013-11-24 06:45:00,
2013-11-24 01:47:00,27.5,17.3,30.46,NW,318,2.0,4.0,65,0.00,,,0.00,Wunderground v.1.15,2013-11-24 06:47:00,
2013-11-24 01:49:00,27.5,16.9,30.46,ENE,61,1.0,4.0,64,0.00,,,0.00,Wunderground v.1.15,2013-11-24 06:49:00,
2013-11-24 01:50:00,27.4,16.8,30.46,ENE,74,2.0,2.0,64,0.00,,,0.00,Wunderground v.1.15,2013-11-24 06:50:00,
2013-11-24 01:52:00,27.4,16.8,30.47,North,355,2.0,2.0,64,0.00,,,0.00,Wunderground v.1.15,2013-11-24 06:52:00,
2013-11-24 01:53:00,27.4,17.2,30.47,North,5,0.0,2.0,65,0.00,,,0.00,Wunderground v.1.15,2013-11-24 06:53:00,
2013-11-24 01:55:00,27.3,17.1,30.47,ENE,71,2.0,2.0,65,0.00,,,0.00,Wunderground v.1.15,2013-11-24 06:55:00,
2013-11-24 01:58:00,27.2,17.0,30.47,North,349,2.0,2.0,65,0.00,,,0.00,Wunderground v.1.15,2013-11-24 06:58:00,
2013-11-24 01:59:00,27.2,17.0,30.47,NNW,346,2.0,2.0,65,0.00,,,0.00,Wunderground v.1.15,2013-11-24 06:59:00,
2013-11-24 02:01:00,27.2,17.0,30.47,NNW,340,3.0,7.0,65,0.00,,,0.00,Wunderground v.1.15,2013-11-24 07:01:00,
2013-11-24 02:03:00,27.1,16.9,30.47,NE,51,1.0,7.0,65,0.00,,,0.00,Wunderground v.1.15,2013-11-24 07:03:00,
2013-11-24 02:04:00,27.1,16.9,30.47,North,355,2.0,7.0,65,0.00,,,0.00,Wunderground v.1.15,2013-11-24 07:04:00,
2013-11-24 02:07:00,27.0,17.1,30.47,North,360,2.0,7.0,66,0.00,,,0.00,Wunderground v.1.15,2013-11-24 07:07:00,
2013-11-24 02:08:00,27.0,17.1,30.47,NNW,342,1.0,7.0,66,0.00,,,0.00,Wunderground v.1.15,2013-11-24 07:08:00,
2013-11-24 02:10:00,27.0,17.1,30.47,WSW,252,3.0,6.0,66,0.00,,,0.00,Wunderground v.1.15,2013-11-24 07:10:00,
2013-11-24 02:12:00,27.0,17.1,30.47,NNW,338,2.0,6.0,66,0.00,,,0.00,Wunderground v.1.15,2013-11-24 07:12:00,
2013-11-24 02:13:00,26.9,17.0,30.47,NW,315,2.0,6.0,66,0.00,,,0.00,Wunderground v.1.15,2013-11-24 07:13:00,
2013-11-24 02:14:00,26.9,16.7,30.47,NNW,348,1.0,9.0,65,0.00,,,0.00,Wunderground v.1.15,2013-11-24 07:14:00,
2013-11-24 02:15:00,26.8,16.6,30.47,NNW,336,3.0,9.0,65,0.00,,,0.00,Wunderground v.1.15,2013-11-24 07:15:00,
2013-11-24 02:17:00,26.8,17.3,30.47,NNW,343,1.0,9.0,67,0.00,,,0.00,Wunderground v.1.15,2013-11-24 07:17:00,
2013-11-24 02:18:00,26.8,17.3,30.47,North,355,4.0,9.0,67,0.00,,,0.00,Wunderground v.1.15,2013-11-24 07:18:00,
2013-11-24 02:19:00,26.8,17.0,30.48,NNW,338,2.0,9.0,66,0.00,,,0.00,Wunderground v.1.15,2013-11-24 07:19:00,
2013-11-24 02:20:00,26.7,16.9,30.48,North,360,1.0,5.0,66,0.00,,,0.00,Wunderground v.1.15,2013-11-24 07:20:00,
2013-11-24 02:21:00,26.7,16.9,30.48,North,11,1.0,5.0,66,0.00,,,0.00,Wunderground v.1.15,2013-11-24 07:21:00,
2013-11-24 02:22:00,26.7,16.9,30.48,NNW,334,2.0,5.0,66,0.00,,,0.00,Wunderground v.1.15,2013-11-24 07:22:00,
2013-11-24 02:23:00,26.7,16.5,30.48,NE,40,2.0,5.0,65,0.00,,,0.00,Wunderground v.1.15,2013-11-24 07:23:00,
2013-11-24 02:24:00,26.7,16.5,30.48,East,100,2.0,5.0,65,0.00,,,0.00,Wunderground v.1.15,2013-11-24 07:24:00,
2013-11-24 02:26:00,26.7,16.5,30.48,NNE,22,2.0,5.0,65,0.00,,,0.00,Wunderground v.1.15,2013-11-24 07:26:00,
2013-11-24 02:27:00,26.7,16.9,30.48,North,351,3.0,5.0,66,0.00,,,0.00,Wunderground v.1.15,2013-11-24 07:27:00,
2013-11-24 02:29:00,26.7,16.9,30.48,WSW,252,3.0,6.0,66,0.00,,,0.00,Wunderground v.1.15,2013-11-24 07:29:00,
2013-11-24 02:30:00,26.6,16.4,30.48,NE,50,1.0,3.0,65,0.00,,,0.00,Wunderground v.1.15,2013-11-24 07:30:00,
2013-11-24 02:31:00,26.6,16.4,30.48,NNE,33,4.0,4.0,65,0.00,,,0.00,Wunderground v.1.15,2013-11-24 07:31:00,
2013-11-24 02:32:00,26.6,16.4,30.48,NW,326,2.0,4.0,65,0.00,,,0.00,Wunderground v.1.15,2013-11-24 07:32:00,
2013-11-24 02:34:00,26.6,16.8,30.48,North,355,3.0,6.0,66,0.00,,,0.00,Wunderground v.1.15,2013-11-24 07:34:00,
2013-11-24 02:35:00,26.6,16.8,30.48,NNW,343,3.0,6.0,66,0.00,,,0.00,Wunderground v.1.15,2013-11-24 07:35:00,
2013-11-24 02:37:00,26.5,16.7,30.48,NNW,336,3.0,6.0,66,0.00,,,0.00,Wunderground v.1.15,2013-11-24 07:37:00,
2013-11-24 02:40:00,26.5,16.7,30.48,NNE,19,1.0,2.0,66,0.00,,,0.00,Wunderground v.1.15,2013-11-24 07:40:00,
2013-11-24 02:43:00,26.5,16.7,30.48,East,101,2.0,3.0,66,0.00,,,0.00,Wunderground v.1.15,2013-11-24 07:43:00,
2013-11-24 02:45:00,26.4,16.6,30.48,NW,313,3.0,5.0,66,0.00,,,0.00,Wunderground v.1.15,2013-11-24 07:45:00,
2013-11-24 02:48:00,26.3,16.5,30.49,NNE,28,3.0,5.0,66,0.00,,,0.00,Wunderground v.1.15,2013-11-24 07:48:00,
2013-11-24 02:49:00,26.3,16.5,30.49,North,355,2.0,5.0,66,0.00,,,0.00,Wunderground v.1.15,2013-11-24 07:49:00,
2013-11-24 02:51:00,26.3,16.5,30.49,NNW,336,2.0,2.0,66,0.00,,,0.00,Wunderground v.1.15,2013-11-24 07:51:00,
2013-11-24 02:54:00,26.2,16.4,30.49,NNW,345,0.0,4.0,66,0.00,,,0.00,Wunderground v.1.15,2013-11-24 07:54:00,
2013-11-24 02:56:00,26.2,16.4,30.49,NNE,22,4.0,7.0,66,0.00,,,0.00,Wunderground v.1.15,2013-11-24 07:56:00,
2013-11-24 02:57:00,26.2,16.4,30.49,West,265,3.0,7.0,66,0.00,,,0.00,Wunderground v.1.15,2013-11-24 07:57:00,
2013-11-24 02:59:00,26.2,16.0,30.49,WNW,291,4.0,8.0,65,0.00,,,0.00,Wunderground v.1.15,2013-11-24 07:59:00,
2013-11-24 03:00:00,29.7,19.0,30.44,NNW,337,3.0,12.0,64,0.00,,,-99.99,WeatherLink 6.0.3,2013-11-24 08:00:00,
2013-11-24 03:01:00,26.1,16.3,30.49,NNW,346,1.0,6.0,66,0.00,,,0.00,Wunderground v.1.15,2013-11-24 08:01:00,
2013-11-24 03:02:00,26.1,16.3,30.49,North,349,0.0,6.0,66,0.00,,,0.00,Wunderground v.1.15,2013-11-24 08:02:00,
2013-11-24 03:04:00,26.1,16.3,30.49,North,349,2.0,6.0,66,0.00,,,0.00,Wunderground v.1.15,2013-11-24 08:04:00,
2013-11-24 03:05:00,26.1,16.3,30.49,North,355,2.0,6.0,66,0.00,,,0.00,Wunderground v.1.15,2013-11-24 08:05:00,
2013-11-24 03:06:00,26.1,16.3,30.49,NNW,340,2.0,6.0,66,0.00,,,0.00,Wunderground v.1.15,2013-11-24 08:06:00,
2013-11-24 03:08:00,26.0,16.2,30.50,ENE,68,3.0,6.0,66,0.00,,,0.00,Wunderground v.1.15,2013-11-24 08:08:00,
2013-11-24 03:09:00,26.0,16.2,30.50,NNE,24,2.0,6.0,66,0.00,,,0.00,Wunderground v.1.15,2013-11-24 08:09:00,
2013-11-24 03:10:00,26.0,15.8,30.50,NNW,344,2.0,3.0,65,0.00,,,0.00,Wunderground v.1.15,2013-11-24 08:10:00,
2013-11-24 03:12:00,26.0,15.8,30.50,WNW,286,0.0,4.0,65,0.00,,,0.00,Wunderground v.1.15,2013-11-24 08:12:00,
2013-11-24 03:13:00,26.0,15.8,30.50,NNE,33,2.0,4.0,65,0.00,,,0.00,Wunderground v.1.15,2013-11-24 08:13:00,
2013-11-24 03:14:00,25.9,16.1,30.50,NNE,28,2.0,6.0,66,0.00,,,0.00,Wunderground v.1.15,2013-11-24 08:14:00,
2013-11-24 03:16:00,25.8,16.0,30.50,NE,35,0.0,6.0,66,0.00,,,0.00,Wunderground v.1.15,2013-11-24 08:16:00,
2013-11-24 03:17:00,25.8,16.0,30.50,NNW,330,1.0,6.0,66,0.00,,,0.00,Wunderground v.1.15,2013-11-24 08:17:00,
2013-11-24 03:19:00,25.8,16.0,30.50,North,350,6.0,8.0,66,0.00,,,0.00,Wunderground v.1.15,2013-11-24 08:19:00,
2013-11-24 03:20:00,25.8,15.6,30.50,NNE,24,1.0,2.0,65,0.00,,,0.00,Wunderground v.1.15,2013-11-24 08:20:00,
2013-11-24 03:21:00,25.8,16.0,30.50,NE,43,2.0,2.0,66,0.00,,,0.00,Wunderground v.1.15,2013-11-24 08:21:00,
2013-11-24 03:22:00,25.7,15.9,30.50,NNE,32,3.0,3.0,66,0.00,,,0.00,Wunderground v.1.15,2013-11-24 08:22:00,
2013-11-24 03:24:00,25.7,15.9,30.50,NNW,347,3.0,4.0,66,0.00,,,0.00,Wunderground v.1.15,2013-11-24 08:24:00,
2013-11-24 03:25:00,25.7,15.9,30.50,NNW,348,2.0,5.0,66,0.00,,,0.00,Wunderground v.1.15,2013-11-24 08:25:00,
2013-11-24 03:26:00,25.7,15.9,30.50,NNE,19,3.0,6.0,66,0.00,,,0.00,Wunderground v.1.15,2013-11-24 08:26:00,
2013-11-24 03:27:00,25.7,15.9,30.50,NE,36,2.0,6.0,66,0.00,,,0.00,Wunderground v.1.15,2013-11-24 08:27:00,
2013-11-24 03:30:00,25.6,15.8,30.50,ENE,59,1.0,2.0,66,0.00,,,0.00,Wunderground v.1.15,2013-11-24 08:30:00,
2013-11-24 03:31:00,25.6,15.8,30.50,North,360,2.0,3.0,66,0.00,,,0.00,Wunderground v.1.15,2013-11-24 08:31:00,
2013-11-24 03:33:00,25.5,16.1,30.50,North,349,1.0,3.0,67,0.00,,,0.00,Wunderground v.1.15,2013-11-24 08:33:00,
2013-11-24 03:35:00,25.5,16.1,30.50,North,349,2.0,3.0,67,0.00,,,0.00,Wunderground v.1.15,2013-11-24 08:35:00,
2013-11-24 03:37:00,25.4,16.0,30.50,NNW,348,4.0,5.0,67,0.00,,,0.00,Wunderground v.1.15,2013-11-24 08:37:00,
2013-11-24 03:38:00,25.4,16.0,30.50,North,355,4.0,5.0,67,0.00,,,0.00,Wunderground v.1.15,2013-11-24 08:38:00,
2013-11-24 03:39:00,25.4,16.0,30.50,WNW,285,7.0,7.0,67,0.00,,,0.00,Wunderground v.1.15,2013-11-24 08:39:00,
2013-11-24 03:40:00,25.3,15.5,30.50,NNW,341,1.0,5.0,66,0.00,,,0.00,Wunderground v.1.15,2013-11-24 08:40:00,
2013-11-24 03:41:00,25.4,15.6,30.50,North,5,2.0,5.0,66,0.00,,,0.00,Wunderground v.1.15,2013-11-24 08:41:00,
2013-11-24 03:42:00,25.3,15.5,30.50,NNW,340,3.0,5.0,66,0.00,,,0.00,Wunderground v.1.15,2013-11-24 08:42:00,
2013-11-24 03:44:00,25.3,15.5,30.50,NNW,339,4.0,6.0,66,0.00,,,0.00,Wunderground v.1.15,2013-11-24 08:44:00,
2013-11-24 03:45:00,25.3,15.5,30.50,NNW,335,3.0,6.0,66,0.00,,,0.00,Wunderground v.1.15,2013-11-24 08:45:00,
2013-11-24 03:46:00,25.3,15.5,30.50,North,355,4.0,6.0,66,0.00,,,0.00,Wunderground v.1.15,2013-11-24 08:46:00,
2013-11-24 03:47:00,25.2,15.4,30.50,North,350,5.0,6.0,66,0.00,,,0.00,Wunderground v.1.15,2013-11-24 08:47:00,
2013-11-24 03:49:00,25.2,15.8,30.50,West,279,6.0,6.0,67,0.00,,,0.00,Wunderground v.1.15,2013-11-24 08:49:00,
2013-11-24 03:51:00,25.2,15.4,30.50,West,277,4.0,6.0,66,0.00,,,0.00,Wunderground v.1.15,2013-11-24 08:51:00,
2013-11-24 03:52:00,25.2,15.4,30.50,WNW,302,5.0,6.0,66,0.00,,,0.00,Wunderground v.1.15,2013-11-24 08:52:00,
2013-11-24 03:53:00,25.2,15.4,30.50,NW,326,2.0,6.0,66,0.00,,,0.00,Wunderground v.1.15,2013-11-24 08:53:00,
2013-11-24 03:54:00,25.1,15.3,30.50,WSW,245,5.0,6.0,66,0.00,,,0.00,Wunderground v.1.15,2013-11-24 08:54:00,
2013-11-24 03:55:00,25.1,15.3,30.50,NNE,30,4.0,6.0,66,0.00,,,0.00,Wunderground v.1.15,2013-11-24 08:55:00,
2013-11-24 03:56:00,25.1,15.3,30.50,NNW,346,4.0,8.0,66,0.00,,,0.00,Wunderground v.1.15,2013-11-24 08:56:00,
2013-11-24 03:57:00,25.1,15.3,30.50,North,350,4.0,8.0,66,0.00,,,0.00,Wunderground v.1.15,2013-11-24 08:57:00,
2013-11-24 03:59:00,25.1,15.3,30.50,NNW,327,2.0,8.0,66,0.00,,,0.00,Wunderground v.1.15,2013-11-24 08:59:00,
2013-11-24 04:00:00,25.1,15.3,30.50,North,0,3.0,9.0,66,0.00,,,-99.99,WeatherLink 6.0.3,2013-11-24 09:00:00,
2013-11-24 04:02:00,25.0,15.2,30.50,NW,305,3.0,5.0,66,0.00,,,0.00,Wunderground v.1.15,2013-11-24 09:02:00,
2013-11-24 04:03:00,25.0,15.2,30.50,North,360,1.0,5.0,66,0.00,,,0.00,Wunderground v.1.15,2013-11-24 09:03:00,
2013-11-24 04:04:00,25.0,15.6,30.50,North,355,1.0,5.0,67,0.00,,,0.00,Wunderground v.1.15,2013-11-24 09:04:00,
2013-11-24 04:06:00,25.0,15.6,30.50,NW,321,3.0,5.0,67,0.00,,,0.00,Wunderground v.1.15,2013-11-24 09:06:00,
2013-11-24 04:07:00,24.9,15.5,30.50,West,268,1.0,5.0,67,0.00,,,0.00,Wunderground v.1.15,2013-11-24 09:07:00,
2013-11-24 04:08:00,24.9,15.1,30.50,West,265,1.0,6.0,66,0.00,,,0.00,Wunderground v.1.15,2013-11-24 09:08:00,
2013-11-24 04:10:00,24.9,15.1,30.50,NE,43,1.0,2.0,66,0.00,,,0.00,Wunderground v.1.15,2013-11-24 09:10:00,
2013-11-24 04:11:00,24.8,15.0,30.50,ENE,57,0.0,2.0,66,0.00,,,0.00,Wunderground v.1.15,2013-11-24 09:11:00,
2013-11-24 04:13:00,24.8,15.0,30.51,NNE,12,1.0,3.0,66,0.00,,,0.00,Wunderground v.1.15,2013-11-24 09:13:00,
2013-11-24 04:14:00,24.8,15.0,30.50,North,360,1.0,6.0,66,0.00,,,0.00,Wunderground v.1.15,2013-11-24 09:14:00,
2013-11-24 04:15:00,24.8,15.4,30.51,NE,51,2.0,6.0,67,0.00,,,0.00,Wunderground v.1.15,2013-11-24 09:15:00,
2013-11-24 04:17:00,24.7,14.9,30.51,NNE,30,2.0,8.0,66,0.00,,,0.00,Wunderground v.1.15,2013-11-24 09:17:00,
2013-11-24 04:18:00,24.7,14.9,30.51,NNE,22,0.0,8.0,66,0.00,,,0.00,Wunderground v.1.15,2013-11-24 09:18:00,
2013-11-24 04:19:00,24.7,14.9,30.51,NNE,15,1.0,2.0,66,0.00,,,0.00,Wunderground v.1.15,2013-11-24 09:19:00,
2013-11-24 04:21:00,24.7,14.9,30.51,North,360,1.0,2.0,66,0.00,,,0.00,Wunderground v.1.15,2013-11-24 09:21:00,
2013-11-24 04:22:00,24.6,15.2,30.51,NNE,13,1.0,2.0,67,0.00,,,0.00,Wunderground v.1.15,2013-11-24 09:22:00,
2013-11-24 04:24:00,24.6,15.2,30.51,North,349,1.0,2.0,67,0.00,,,0.00,Wunderground v.1.15,2013-11-24 09:24:00,
2013-11-24 04:25:00,24.6,15.2,30.51,North,349,0.0,2.0,67,0.00,,,0.00,Wunderground v.1.15,2013-11-24 09:25:00,
2013-11-24 04:26:00,24.6,15.2,30.51,ENE,63,0.0,2.0,67,0.00,,,0.00,Wunderground v.1.15,2013-11-24 09:26:00,
2013-11-24 04:28:00,24.5,15.1,30.51,East,92,2.0,3.0,67,0.00,,,0.00,Wunderground v.1.15,2013-11-24 09:28:00,
2013-11-24 04:29:00,24.5,15.1,30.51,NE,38,2.0,6.0,67,0.00,,,0.00,Wunderground v.1.15,2013-11-24 09:29:00,
2013-11-24 04:30:00,24.5,15.1,30.51,North,0,2.0,8.0,67,0.00,,,-99.99,WeatherLink 6.0.3,2013-11-24 09:30:00,
2013-11-24 04:31:00,24.5,15.1,30.51,NE,53,2.0,2.0,67,0.00,,,0.00,Wunderground v.1.15,2013-11-24 09:31:00,
2013-11-24 04:32:00,24.5,15.1,30.51,NE,53,1.0,2.0,67,0.00,,,0.00,Wunderground v.1.15,2013-11-24 09:32:00,
2013-11-24 04:33:00,24.5,15.1,30.51,NNE,14,0.0,3.0,67,0.00,,,0.00,Wunderground v.1.15,2013-11-24 09:33:00,
2013-11-24 04:35:00,24.4,15.0,30.51,West,276,4.0,6.0,67,0.00,,,0.00,Wunderground v.1.15,2013-11-24 09:35:00,
2013-11-24 04:36:00,24.4,14.7,30.51,North,360,1.0,6.0,66,0.00,,,0.00,Wunderground v.1.15,2013-11-24 09:36:00,
2013-11-24 04:37:00,24.4,14.7,30.51,NNW,348,1.0,6.0,66,0.00,,,0.00,Wunderground v.1.15,2013-11-24 09:37:00,
2013-11-24 04:39:00,24.4,15.0,30.51,East,91,3.0,6.0,67,0.00,,,0.00,Wunderground v.1.15,2013-11-24 09:39:00,
2013-11-24 04:40:00,24.4,15.0,30.52,East,86,1.0,2.0,67,0.00,,,0.00,Wunderground v.1.15,2013-11-24 09:40:00,
2013-11-24 04:41:00,24.3,14.9,30.52,East,85,1.0,2.0,67,0.00,,,0.00,Wunderground v.1.15,2013-11-24 09:41:00,
2013-11-24 04:42:00,24.3,15.3,30.52,North,5,1.0,2.0,68,0.00,,,0.00,Wunderground v.1.15,2013-11-24 09:42:00,
2013-11-24 04:43:00,24.3,15.3,30.52,West,277,1.0,3.0,68,0.00,,,0.00,Wunderground v.1.15,2013-11-24 09:43:00,
2013-11-24 04:45:00,24.3,14.9,30.52,NNE,17,0.0,3.0,67,0.00,,,0.00,Wunderground v.1.15,2013-11-24 09:45:00,
2013-11-24 04:46:00,24.3,14.9,30.52,NNW,342,0.0,3.0,67,0.00,,,0.00,Wunderground v.1.15,2013-11-24 09:46:00,
2013-11-24 04:47:00,24.2,14.8,30.52,NE,42,2.0,3.0,67,0.00,,,0.00,Wunderground v.1.15,2013-11-24 09:47:00,
2013-11-24 04:48:00,24.2,15.2,30.52,ENE,57,2.0,4.0,68,0.00,,,0.00,Wunderground v.1.15,2013-11-24 09:48:00,
2013-11-24 04:50:00,24.2,14.8,30.52,North,5,1.0,2.0,67,0.00,,,0.00,Wunderground v.1.15,2013-11-24 09:50:00,
2013-11-24 04:51:00,24.2,15.2,30.52,NNE,22,2.0,2.0,68,0.00,,,0.00,Wunderground v.1.15,2013-11-24 09:51:00,
2013-11-24 04:52:00,24.2,14.8,30.52,North,350,1.0,2.0,67,0.00,,,0.00,Wunderground v.1.15,2013-11-24 09:52:00,
2013-11-24 04:53:00,24.2,14.8,30.52,NNW,346,1.0,2.0,67,0.00,,,0.00,Wunderground v.1.15,2013-11-24 09:53:00,
2013-11-24 04:55:00,24.2,14.8,30.52,ENE,65,0.0,2.0,67,0.00,,,0.00,Wunderground v.1.15,2013-11-24 09:55:00,
2013-11-24 04:57:00,24.1,14.7,30.52,NE,47,1.0,2.0,67,0.00,,,0.00,Wunderground v.1.15,2013-11-24 09:57:00,
2013-11-24 04:58:00,24.1,14.7,30.52,NNW,329,2.0,2.0,67,0.00,,,0.00,Wunderground v.1.15,2013-11-24 09:58:00,
2013-11-24 05:00:00,27.2,17.0,30.47,North,0,2.0,18.0,65,0.00,,,-99.99,WeatherLink 6.0.3,2013-11-24 10:00:00,
2013-11-24 05:01:00,24.1,15.1,30.52,North,360,2.0,3.0,68,0.00,,,0.00,Wunderground v.1.15,2013-11-24 10:01:00,
2013-11-24 05:02:00,24.1,15.1,30.52,NNE,25,4.0,4.0,68,0.00,,,0.00,Wunderground v.1.15,2013-11-24 10:02:00,
2013-11-24 05:04:00,24.1,14.7,30.52,North,360,1.0,4.0,67,0.00,,,0.00,Wunderground v.1.15,2013-11-24 10:04:00,
2013-11-24 05:06:00,24.0,15.0,30.53,ENE,57,3.0,5.0,68,0.00,,,0.00,Wunderground v.1.15,2013-11-24 10:06:00,
2013-11-24 05:07:00,24.0,15.0,30.53,NE,43,2.0,5.0,68,0.00,,,0.00,Wunderground v.1.15,2013-11-24 10:07:00,
2013-11-24 05:08:00,24.0,15.0,30.53,NNW,335,0.0,5.0,68,0.00,,,0.00,Wunderground v.1.15,2013-11-24 10:08:00,
2013-11-24 05:09:00,24.0,15.0,30.52,NNW,336,2.0,5.0,68,0.00,,,0.00,Wunderground v.1.15,2013-11-24 10:09:00,
2013-11-24 05:12:00,23.9,14.9,30.53,North,5,0.0,2.0,68,0.00,,,0.00,Wunderground v.1.15,2013-11-24 10:12:00,
2013-11-24 05:14:00,23.9,15.2,30.53,North,360,1.0,2.0,69,0.00,,,0.00,Wunderground v.1.15,2013-11-24 10:14:00,
2013-11-24 05:15:00,23.9,15.2,30.53,West,281,1.0,3.0,69,0.00,,,0.00,Wunderground v.1.15,2013-11-24 10:15:00,
2013-11-24 05:18:00,23.8,14.8,30.53,East,86,3.0,3.0,68,0.00,,,0.00,Wunderground v.1.15,2013-11-24 10:18:00,
2013-11-24 05:19:00,23.8,14.8,30.53,North,355,1.0,3.0,68,0.00,,,0.00,Wunderground v.1.15,2013-11-24 10:19:00,
2013-11-24 05:20:00,23.8,14.8,30.53,North,355,0.0,1.0,68,0.00,,,0.00,Wunderground v.1.15,2013-11-24 10:20:00,
2013-11-24 05:21:00,23.8,15.1,30.53,ENE,71,1.0,2.0,69,0.00,,,0.00,Wunderground v.1.15,2013-11-24 10:21:00,
2013-11-24 05:23:00,23.8,15.1,30.53,ENE,76,3.0,3.0,69,0.00,,,0.00,Wunderground v.1.15,2013-11-24 10:23:00,
2013-11-24 05:24:00,23.8,15.1,30.53,East,95,4.0,4.0,69,0.00,,,0.00,Wunderground v.1.15,2013-11-24 10:24:00,
2013-11-24 05:25:00,23.8,15.4,30.53,NNW,339,1.0,4.0,70,0.00,,,0.00,Wunderground v.1.15,2013-11-24 10:25:00,
2013-11-24 05:26:00,23.7,15.3,30.53,NNW,339,1.0,4.0,70,0.00,,,0.00,Wunderground v.1.15,2013-11-24 10:26:00,
2013-11-24 05:29:00,23.6,15.2,30.53,NNW,346,1.0,4.0,70,0.00,,,0.00,Wunderground v.1.15,2013-11-24 10:29:00,
2013-11-24 05:30:00,23.6,15.2,30.53,NE,51,1.0,2.0,70,0.00,,,0.00,Wunderground v.1.15,2013-11-24 10:30:00,
2013-11-24 05:31:00,23.6,15.2,30.53,North,0,1.0,6.0,70,0.00,,,-99.99,WeatherLink 6.0.3,2013-11-24 10:31:00,
2013-11-24 05:32:00,23.5,15.1,30.53,North,5,3.0,6.0,70,0.00,,,0.00,Wunderground v.1.15,2013-11-24 10:32:00,
2013-11-24 05:34:00,23.5,15.1,30.53,North,355,2.0,6.0,70,0.00,,,0.00,Wunderground v.1.15,2013-11-24 10:34:00,
2013-11-24 05:35:00,23.5,15.1,30.53,North,5,1.0,6.0,70,0.00,,,0.00,Wunderground v.1.15,2013-11-24 10:35:00,
2013-11-24 05:36:00,23.5,15.1,30.54,West,271,2.0,6.0,70,0.00,,,0.00,Wunderground v.1.15,2013-11-24 10:36:00,
2013-11-24 05:37:00,23.5,14.8,30.54,West,266,4.0,6.0,69,0.00,,,0.00,Wunderground v.1.15,2013-11-24 10:37:00,
2013-11-24 05:38:00,23.5,14.8,30.54,North,351,0.0,6.0,69,0.00,,,0.00,Wunderground v.1.15,2013-11-24 10:38:00,
2013-11-24 05:40:00,23.5,15.1,30.54,North,350,2.0,2.0,70,0.00,,,0.00,Wunderground v.1.15,2013-11-24 10:40:00,
2013-11-24 05:41:00,23.5,15.1,30.54,North,355,2.0,3.0,70,0.00,,,0.00,Wunderground v.1.15,2013-11-24 10:41:00,
2013-11-24 05:42:00,23.5,15.1,30.54,North,355,2.0,3.0,70,0.00,,,0.00,Wunderground v.1.15,2013-11-24 10:42:00,
2013-11-24 05:45:00,23.5,15.1,30.54,NNW,347,1.0,3.0,70,0.00,,,0.00,Wunderground v.1.15,2013-11-24 10:45:00,
2013-11-24 05:46:00,23.5,15.1,30.54,NE,34,2.0,3.0,70,0.00,,,0.00,Wunderground v.1.15,2013-11-24 10:46:00,
2013-11-24 05:47:00,23.5,15.1,30.55,North,355,1.0,4.0,70,0.00,,,0.00,Wunderground v.1.15,2013-11-24 10:47:00,
2013-11-24 05:51:00,23.4,15.4,30.55,NNW,339,1.0,2.0,71,0.00,,,0.00,Wunderground v.1.15,2013-11-24 10:51:00,
2013-11-24 05:52:00,23.4,15.4,30.55,NNW,344,1.0,2.0,71,0.00,,,0.00,Wunderground v.1.15,2013-11-24 10:52:00,
2013-11-24 05:53:00,23.4,15.1,30.55,NNW,342,3.0,3.0,70,0.00,,,0.00,Wunderground v.1.15,2013-11-24 10:53:00,
2013-11-24 05:57:00,23.3,15.3,30.55,NNW,346,1.0,5.0,71,0.00,,,0.00,Wunderground v.1.15,2013-11-24 10:57:00,
2013-11-24 05:58:00,23.3,15.0,30.55,NNW,345,2.0,5.0,70,0.00,,,0.00,Wunderground v.1.15,2013-11-24 10:58:00,
2013-11-24 06:00:00,26.1,16.3,30.49,North,0,2.0,8.0,66,0.00,,,-99.99,WeatherLink 6.0.3,2013-11-24 11:00:00,
2013-11-24 06:02:00,23.2,14.9,30.56,North,360,4.0,8.0,70,0.00,,,0.00,Wunderground v.1.15,2013-11-24 11:02:00,
2013-11-24 06:03:00,23.2,14.9,30.56,North,5,2.0,8.0,70,0.00,,,0.00,Wunderground v.1.15,2013-11-24 11:03:00,
2013-11-24 06:04:00,23.2,14.9,30.56,NNE,25,2.0,8.0,70,0.00,,,0.00,Wunderground v.1.15,2013-11-24 11:04:00,
2013-11-24 06:08:00,23.2,15.2,30.56,North,350,2.0,8.0,71,0.00,,,0.00,Wunderground v.1.15,2013-11-24 11:08:00,
2013-11-24 06:09:00,23.1,15.1,30.56,NNW,342,1.0,8.0,71,0.00,,,0.00,Wunderground v.1.15,2013-11-24 11:09:00,
2013-11-24 06:13:00,23.1,15.1,30.56,NNW,340,1.0,2.0,71,0.00,,,0.00,Wunderground v.1.15,2013-11-24 11:13:00,
2013-11-24 06:14:00,23.1,15.1,30.56,NW,313,1.0,2.0,71,0.00,,,0.00,Wunderground v.1.15,2013-11-24 11:14:00,
2013-11-24 06:15:00,23.0,15.0,30.56,NNW,327,1.0,2.0,71,0.00,,,0.00,Wunderground v.1.15,2013-11-24 11:15:00,
2013-11-24 06:18:00,23.0,15.0,30.57,NW,304,2.0,3.0,71,0.00,,,0.00,Wunderground v.1.15,2013-11-24 11:18:00,
2013-11-24 06:19:00,23.0,15.0,30.57,NW,309,1.0,3.0,71,0.00,,,0.00,Wunderground v.1.15,2013-11-24 11:19:00,
2013-11-24 06:20:00,22.9,14.6,30.57,NW,315,2.0,2.0,70,0.00,,,0.00,Wunderground v.1.15,2013-11-24 11:20:00,
2013-11-24 06:21:00,22.9,14.6,30.57,WSW,255,3.0,4.0,70,0.00,,,0.00,Wunderground v.1.15,2013-11-24 11:21:00,
2013-11-24 06:23:00,22.9,14.9,30.57,NNW,333,3.0,7.0,71,0.00,,,0.00,Wunderground v.1.15,2013-11-24 11:23:00,
2013-11-24 06:24:00,22.9,14.9,30.57,North,360,2.0,7.0,71,0.00,,,0.00,Wunderground v.1.15,2013-11-24 11:24:00,
2013-11-24 06:25:00,22.9,14.9,30.57,NNW,346,2.0,7.0,71,0.00,,,0.00,Wunderground v.1.15,2013-11-24 11:25:00,
2013-11-24 06:26:00,22.9,14.6,30.57,North,349,3.0,7.0,70,0.00,,,0.00,Wunderground v.1.15,2013-11-24 11:26:00,
2013-11-24 06:28:00,22.9,14.6,30.57,North,360,1.0,7.0,70,0.00,,,0.00,Wunderground v.1.15,2013-11-24 11:28:00,
2013-11-24 06:30:00,22.9,14.6,30.57,North,11,1.0,2.0,70,0.00,,,0.00,Wunderground v.1.15,2013-11-24 11:30:00,
2013-11-24 06:31:00,22.9,14.9,30.57,NW,315,3.0,3.0,71,0.00,,,0.00,Wunderground v.1.15,2013-11-24 11:31:00,
2013-11-24 06:32:00,22.8,14.8,30.57,NNW,338,2.0,6.0,71,0.00,,,0.00,Wunderground v.1.15,2013-11-24 11:32:00,
2013-11-24 06:34:00,22.8,14.5,30.57,NNW,331,2.0,6.0,70,0.00,,,0.00,Wunderground v.1.15,2013-11-24 11:34:00,
2013-11-24 06:35:00,22.8,14.8,30.57,NW,309,2.0,6.0,71,0.00,,,0.00,Wunderground v.1.15,2013-11-24 11:35:00,
2013-11-24 06:36:00,22.8,14.5,30.57,NNW,331,3.0,6.0,70,0.00,,,0.00,Wunderground v.1.15,2013-11-24 11:36:00,
2013-11-24 06:37:00,22.8,14.5,30.57,ENE,66,2.0,6.0,70,0.00,,,0.00,Wunderground v.1.15,2013-11-24 11:37:00,
2013-11-24 06:40:00,22.7,14.4,30.57,North,355,3.0,4.0,70,0.00,,,0.00,Wunderground v.1.15,2013-11-24 11:40:00,
2013-11-24 06:41:00,22.7,14.4,30.57,WSW,258,6.0,6.0,70,0.00,,,0.00,Wunderground v.1.15,2013-11-24 11:41:00,
2013-11-24 06:42:00,22.7,14.7,30.57,North,349,3.0,6.0,71,0.00,,,0.00,Wunderground v.1.15,2013-11-24 11:42:00,
2013-11-24 06:45:00,22.7,14.4,30.57,North,351,2.0,6.0,70,0.00,,,0.00,Wunderground v.1.15,2013-11-24 11:45:00,
2013-11-24 06:47:00,22.7,14.4,30.57,NNW,347,3.0,6.0,70,0.00,,,0.00,Wunderground v.1.15,2013-11-24 11:47:00,
2013-11-24 06:48:00,22.7,14.4,30.57,WNW,300,2.0,6.0,70,0.00,,,0.00,Wunderground v.1.15,2013-11-24 11:48:00,
2013-11-24 06:49:00,22.7,14.7,30.57,NNW,344,2.0,6.0,71,0.00,,,0.00,Wunderground v.1.15,2013-11-24 11:49:00,
2013-11-24 06:50:00,22.7,14.7,30.57,North,349,1.0,3.0,71,0.00,,,0.00,Wunderground v.1.15,2013-11-24 11:50:00,
2013-11-24 06:51:00,22.7,14.7,30.57,NNW,348,1.0,3.0,71,0.00,,,0.00,Wunderground v.1.15,2013-11-24 11:51:00,
2013-11-24 06:52:00,22.7,14.7,30.57,NW,323,2.0,3.0,71,0.00,,,0.00,Wunderground v.1.15,2013-11-24 11:52:00,
2013-11-24 06:53:00,22.6,14.3,30.57,NNW,329,2.0,4.0,70,0.00,,,0.00,Wunderground v.1.15,2013-11-24 11:53:00,
2013-11-24 06:54:00,22.6,14.3,30.57,WSW,248,2.0,4.0,70,0.00,,,0.00,Wunderground v.1.15,2013-11-24 11:54:00,
2013-11-24 06:55:00,22.6,14.3,30.57,North,9,2.0,4.0,70,0.00,,,0.00,Wunderground v.1.15,2013-11-24 11:55:00,
2013-11-24 06:56:00,22.6,14.6,30.58,NNW,341,2.0,4.0,71,0.00,,,0.00,Wunderground v.1.15,2013-11-24 11:56:00,
2013-11-24 06:58:00,22.6,14.6,30.58,NNW,336,4.0,4.0,71,0.00,,,0.00,Wunderground v.1.15,2013-11-24 11:58:00,
2013-11-24 06:59:00,22.6,14.6,30.58,NNW,339,1.0,4.0,71,0.00,,,0.00,Wunderground v.1.15,2013-11-24 11:59:00,
2013-11-24 07:00:00,22.6,14.6,30.58,SW,227,2.0,3.0,71,0.00,,,0.00,Wunderground v.1.15,2013-11-24 12:00:00,
2013-11-24 07:01:00,22.5,14.5,30.58,WNW,296,1.0,4.0,71,0.00,,,0.00,Wunderground v.1.15,2013-11-24 12:01:00,
2013-11-24 07:03:00,22.5,14.2,30.58,ENE,65,1.0,4.0,70,0.00,,,0.00,Wunderground v.1.15,2013-11-24 12:03:00,
2013-11-24 07:04:00,22.5,14.2,30.58,NNW,344,3.0,4.0,70,0.00,,,0.00,Wunderground v.1.15,2013-11-24 12:04:00,
2013-11-24 07:05:00,22.5,14.5,30.58,ENE,57,0.0,4.0,71,0.00,,,0.00,Wunderground v.1.15,2013-11-24 12:05:00,
2013-11-24 07:06:00,22.5,14.5,30.58,North,10,2.0,4.0,71,0.00,,,0.00,Wunderground v.1.15,2013-11-24 12:06:00,
2013-11-24 07:07:00,22.5,14.5,30.58,NNE,30,0.0,4.0,71,0.00,,,0.00,Wunderground v.1.15,2013-11-24 12:07:00,
2013-11-24 07:08:00,22.5,14.5,30.58,North,9,2.0,4.0,71,0.00,,,0.00,Wunderground v.1.15,2013-11-24 12:08:00,
2013-11-24 07:09:00,22.5,14.5,30.58,North,11,0.0,4.0,71,0.00,,,0.00,Wunderground v.1.15,2013-11-24 12:09:00,
2013-11-24 07:10:00,22.5,14.5,30.58,North,355,1.0,2.0,71,0.00,,,0.00,Wunderground v.1.15,2013-11-24 12:10:00,
2013-11-24 07:11:00,22.5,14.5,30.58,NW,308,1.0,3.0,71,0.00,,,0.00,Wunderground v.1.15,2013-11-24 12:11:00,
2013-11-24 07:12:00,22.4,14.4,30.58,NNW,334,2.0,3.0,71,0.00,,,0.00,Wunderground v.1.15,2013-11-24 12:12:00,
2013-11-24 07:13:00,22.4,14.4,30.58,WNW,287,3.0,3.0,71,0.00,,,0.00,Wunderground v.1.15,2013-11-24 12:13:00,
2013-11-24 07:14:00,22.4,14.4,30.58,WNW,301,2.0,4.0,71,0.00,,,0.00,Wunderground v.1.15,2013-11-24 12:14:00,
2013-11-24 07:16:00,22.4,14.7,30.58,WNW,283,2.0,4.0,72,0.00,,,0.00,Wunderground v.1.15,2013-11-24 12:16:00,
2013-11-24 07:17:00,22.4,14.4,30.58,NW,318,2.0,8.0,71,0.00,,,0.00,Wunderground v.1.15,2013-11-24 12:17:00,
2013-11-24 07:18:00,22.4,14.7,30.58,NNW,344,1.0,8.0,72,0.00,,,0.00,Wunderground v.1.15,2013-11-24 12:18:00,
2013-11-24 07:19:00,22.4,14.7,30.58,WNW,299,2.0,4.0,72,0.00,,,0.00,Wunderground v.1.15,2013-11-24 12:19:00,
2013-11-24 07:20:00,22.3,14.6,30.58,ENE,59,1.0,4.0,72,0.00,,,0.00,Wunderground v.1.15,2013-11-24 12:20:00,
2013-11-24 07:21:00,22.3,14.6,30.58,NNW,343,1.0,4.0,72,0.00,,,0.00,Wunderground v.1.15,2013-11-24 12:21:00,
2013-11-24 07:22:00,22.3,14.6,30.59,NNW,329,0.0,4.0,72,0.00,,,0.00,Wunderground v.1.15,2013-11-24 12:22:00,
2013-11-24 07:23:00,22.3,14.3,30.59,NNW,333,0.0,4.0,71,0.00,,,0.00,Wunderground v.1.15,2013-11-24 12:23:00,
2013-11-24 07:24:00,22.2,14.2,30.59,NNW,333,0.0,4.0,71,0.00,,,0.00,Wunderground v.1.15,2013-11-24 12:24:00,
2013-11-24 07:25:00,22.2,14.5,30.59,NNE,14,1.0,4.0,72,0.00,,,0.00,Wunderground v.1.15,2013-11-24 12:25:00,
2013-11-24 07:26:00,22.3,14.3,30.59,North,351,1.0,4.0,71,0.00,,,0.00,Wunderground v.1.15,2013-11-24 12:26:00,
2013-11-24 07:28:00,22.2,14.5,30.59,NNE,15,0.0,4.0,72,0.00,,,0.00,Wunderground v.1.15,2013-11-24 12:28:00,
2013-11-24 07:29:00,22.2,14.5,30.59,North,9,0.0,4.0,72,0.00,,,0.00,Wunderground v.1.15,2013-11-24 12:29:00,
2013-11-24 07:30:00,22.2,14.5,30.59,North,0,1.0,8.0,72,0.00,,,-99.99,WeatherLink 6.0.3,2013-11-24 12:30:00,
2013-11-24 07:31:00,22.2,14.5,30.59,North,9,0.0,1.0,72,0.00,,,0.00,Wunderground v.1.15,2013-11-24 12:31:00,
2013-11-24 07:32:00,22.2,14.5,30.59,North,9,0.0,1.0,72,0.00,,,0.00,Wunderground v.1.15,2013-11-24 12:32:00,
2013-11-24 07:33:00,22.2,14.5,30.59,ENE,74,2.0,2.0,72,0.00,,,0.00,Wunderground v.1.15,2013-11-24 12:33:00,
2013-11-24 07:34:00,22.2,14.2,30.59,NNW,347,1.0,3.0,71,0.00,,,0.00,Wunderground v.1.15,2013-11-24 12:34:00,
2013-11-24 07:36:00,22.2,14.9,30.59,ENE,69,1.0,3.0,73,0.00,,,0.00,Wunderground v.1.15,2013-11-24 12:36:00,
2013-11-24 07:37:00,22.2,14.9,30.59,WNW,290,2.0,3.0,73,0.00,,,0.00,Wunderground v.1.15,2013-11-24 12:37:00,
2013-11-24 07:38:00,22.2,14.9,30.59,North,9,5.0,7.0,73,0.00,,,0.00,Wunderground v.1.15,2013-11-24 12:38:00,
2013-11-24 07:39:00,22.3,14.6,30.59,ENE,61,2.0,7.0,72,0.00,,,0.00,Wunderground v.1.15,2013-11-24 12:39:00,
2013-11-24 07:42:00,22.4,14.7,30.59,WNW,294,2.0,3.0,72,0.00,,,0.00,Wunderground v.1.15,2013-11-24 12:42:00,
2013-11-24 07:43:00,22.4,14.7,30.59,North,5,2.0,3.0,72,0.00,,,0.00,Wunderground v.1.15,2013-11-24 12:43:00,
2013-11-24 07:45:00,22.5,14.8,30.59,NNW,330,2.0,4.0,72,0.00,,,0.00,Wunderground v.1.15,2013-11-24 12:45:00,
2013-11-24 07:47:00,22.6,15.2,30.59,NNW,346,0.0,4.0,73,0.00,,,0.00,Wunderground v.1.15,2013-11-24 12:47:00,
2013-11-24 07:48:00,22.6,15.2,30.59,NW,319,1.0,4.0,73,0.00,,,0.00,Wunderground v.1.15,2013-11-24 12:48:00,
2013-11-24 07:50:00,22.7,15.0,30.59,NW,315,1.0,2.0,72,0.00,,,0.00,Wunderground v.1.15,2013-11-24 12:50:00,
2013-11-24 07:52:00,22.9,15.2,30.60,North,355,3.0,5.0,72,0.00,,,0.00,Wunderground v.1.15,2013-11-24 12:52:00,
2013-11-24 07:53:00,22.9,15.2,30.60,NNW,346,1.0,5.0,72,0.00,,,0.00,Wunderground v.1.15,2013-11-24 12:53:00,
2013-11-24 07:55:00,23.1,15.4,30.60,North,360,2.0,5.0,72,0.00,,,0.00,Wunderground v.1.15,2013-11-24 12:55:00,
2013-11-24 07:56:00,23.1,15.4,30.60,North,360,2.0,5.0,72,0.00,,,0.00,Wunderground v.1.15,2013-11-24 12:56:00,
2013-11-24 07:58:00,23.1,15.1,30.60,NNE,28,3.0,5.0,71,0.00,,,0.00,Wunderground v.1.15,2013-11-24 12:58:00,
2013-11-24 08:00:00,24.1,14.7,30.52,NE,45,1.0,7.0,67,0.00,,,-99.99,WeatherLink 6.0.3,2013-11-24 13:00:00,
2013-11-24 08:01:00,23.1,15.1,30.60,North,0,1.0,9.0,71,0.00,,,-99.99,WeatherLink 6.0.3,2013-11-24 13:01:00,
2013-11-24 08:03:00,23.2,15.2,30.60,North,350,1.0,5.0,71,0.00,,,0.00,Wunderground v.1.15,2013-11-24 13:03:00,
2013-11-24 08:04:00,23.2,15.2,30.60,North,350,1.0,5.0,71,0.00,,,0.00,Wunderground v.1.15,2013-11-24 13:04:00,
2013-11-24 08:06:00,23.2,15.2,30.60,North,355,2.0,5.0,71,0.00,,,0.00,Wunderground v.1.15,2013-11-24 13:06:00,
2013-11-24 08:07:00,23.3,15.3,30.60,SW,233,1.0,5.0,71,0.00,,,0.00,Wunderground v.1.15,2013-11-24 13:07:00,
2013-11-24 08:08:00,23.3,15.3,30.60,NNW,335,2.0,5.0,71,0.00,,,0.00,Wunderground v.1.15,2013-11-24 13:08:00,
2013-11-24 08:09:00,23.3,15.3,30.60,NW,309,4.0,5.0,71,0.00,,,0.00,Wunderground v.1.15,2013-11-24 13:09:00,
2013-11-24 08:11:00,23.3,15.3,30.61,NW,319,1.0,4.0,71,0.00,,,0.00,Wunderground v.1.15,2013-11-24 13:11:00,
2013-11-24 08:13:00,23.4,15.4,30.61,West,275,2.0,4.0,71,0.00,,,0.00,Wunderground v.1.15,2013-11-24 13:13:00,
2013-11-24 08:14:00,23.4,15.7,30.61,North,360,3.0,6.0,72,0.00,,,0.00,Wunderground v.1.15,2013-11-24 13:14:00,
2013-11-24 08:16:00,23.5,15.8,30.61,NNW,334,2.0,6.0,72,0.00,,,0.00,Wunderground v.1.15,2013-11-24 13:16:00,
2013-11-24 08:17:00,23.5,15.8,30.61,NNW,332,4.0,6.0,72,0.00,,,0.00,Wunderground v.1.15,2013-11-24 13:17:00,
2013-11-24 08:18:00,23.5,15.5,30.61,NW,313,3.0,6.0,71,0.00,,,0.00,Wunderground v.1.15,2013-11-24 13:18:00,
2013-11-24 08:19:00,23.6,15.6,30.61,NW,316,3.0,3.0,71,0.00,,,0.00,Wunderground v.1.15,2013-11-24 13:19:00,
2013-11-24 08:20:00,23.6,15.6,30.61,NW,305,2.0,3.0,71,0.00,,,0.00,Wunderground v.1.15,2013-11-24 13:20:00,
2013-11-24 08:21:00,23.7,15.7,30.62,WNW,299,5.0,7.0,71,0.00,,,0.00,Wunderground v.1.15,2013-11-24 13:21:00,
2013-11-24 08:22:00,23.7,15.3,30.62,WNW,292,3.0,7.0,70,0.00,,,0.00,Wunderground v.1.15,2013-11-24 13:22:00,
2013-11-24 08:24:00,23.7,15.3,30.62,West,281,2.0,7.0,70,0.00,,,0.00,Wunderground v.1.15,2013-11-24 13:24:00,
2013-11-24 08:25:00,23.7,15.7,30.62,NNW,344,3.0,7.0,71,0.00,,,0.00,Wunderground v.1.15,2013-11-24 13:25:00,
2013-11-24 08:27:00,23.7,15.7,30.62,NNW,339,3.0,7.0,71,0.00,,,0.00,Wunderground v.1.15,2013-11-24 13:27:00,
2013-11-24 08:29:00,23.7,15.3,30.62,NNW,346,3.0,7.0,70,0.00,,,0.00,Wunderground v.1.15,2013-11-24 13:29:00,
2013-11-24 08:30:00,23.7,15.3,30.62,NNW,346,2.0,3.0,70,0.00,,,0.00,Wunderground v.1.15,2013-11-24 13:30:00,
2013-11-24 08:31:00,23.8,15.8,30.62,NNW,333,3.0,4.0,71,0.00,,,0.00,Wunderground v.1.15,2013-11-24 13:31:00,
2013-11-24 08:32:00,23.9,15.9,30.63,ESE,121,2.0,4.0,71,0.00,,,0.00,Wunderground v.1.15,2013-11-24 13:32:00,
2013-11-24 08:35:00,24.0,16.0,30.62,North,11,1.0,4.0,71,0.00,,,0.00,Wunderground v.1.15,2013-11-24 13:35:00,
2013-11-24 08:36:00,24.2,15.8,30.63,West,268,4.0,4.0,70,0.00,,,0.00,Wunderground v.1.15,2013-11-24 13:36:00,
2013-11-24 08:37:00,24.2,15.8,30.63,NW,320,0.0,7.0,70,0.00,,,0.00,Wunderground v.1.15,2013-11-24 13:37:00,
2013-11-24 08:40:00,24.2,15.8,30.63,NE,38,1.0,4.0,70,0.00,,,0.00,Wunderground v.1.15,2013-11-24 13:40:00,
2013-11-24 08:41:00,24.2,15.8,30.63,North,355,4.0,4.0,70,0.00,,,0.00,Wunderground v.1.15,2013-11-24 13:41:00,
2013-11-24 08:42:00,24.3,15.9,30.63,NE,55,1.0,4.0,70,0.00,,,0.00,Wunderground v.1.15,2013-11-24 13:42:00,
2013-11-24 08:43:00,24.3,15.9,30.63,NNE,13,3.0,4.0,70,0.00,,,0.00,Wunderground v.1.15,2013-11-24 13:43:00,
2013-11-24 08:46:00,24.4,15.7,30.63,NE,45,1.0,5.0,69,0.00,,,0.00,Wunderground v.1.15,2013-11-24 13:46:00,
2013-11-24 08:47:00,24.5,16.1,30.63,NNE,25,0.0,5.0,70,0.00,,,0.00,Wunderground v.1.15,2013-11-24 13:47:00,
2013-11-24 08:48:00,24.5,16.1,30.63,NNE,25,0.0,5.0,70,0.00,,,0.00,Wunderground v.1.15,2013-11-24 13:48:00,
2013-11-24 08:51:00,24.8,16.4,30.63,NW,322,1.0,3.0,70,0.00,,,0.00,Wunderground v.1.15,2013-11-24 13:51:00,
2013-11-24 08:53:00,24.9,16.5,30.63,WNW,295,2.0,3.0,70,0.00,,,0.00,Wunderground v.1.15,2013-11-24 13:53:00,
2013-11-24 08:54:00,24.9,16.5,30.63,NNW,341,3.0,4.0,70,0.00,,,0.00,Wunderground v.1.15,2013-11-24 13:54:00,
2013-11-24 08:57:00,24.9,16.2,30.63,North,349,0.0,4.0,69,0.00,,,0.00,Wunderground v.1.15,2013-11-24 13:57:00,
2013-11-24 08:58:00,24.9,16.2,30.63,North,5,1.0,4.0,69,0.00,,,0.00,Wunderground v.1.15,2013-11-24 13:58:00,
2013-11-24 09:00:00,24.9,16.2,30.63,NW,325,1.0,2.0,69,0.00,,,0.00,Wunderground v.1.15,2013-11-24 14:00:00,
2013-11-24 09:02:00,25.0,16.3,30.63,WNW,290,2.0,4.0,69,0.00,,,0.00,Wunderground v.1.15,2013-11-24 14:02:00,
2013-11-24 09:03:00,24.9,15.8,30.63,NE,34,1.0,4.0,68,0.00,,,0.00,Wunderground v.1.15,2013-11-24 14:03:00,
2013-11-24 09:04:00,24.9,16.2,30.63,NNE,15,2.0,4.0,69,0.00,,,0.00,Wunderground v.1.15,2013-11-24 14:04:00,
2013-11-24 09:05:00,24.9,15.8,30.63,NNW,343,3.0,5.0,68,0.00,,,0.00,Wunderground v.1.15,2013-11-24 14:05:00,
2013-11-24 09:07:00,24.9,15.8,30.63,NNW,340,3.0,5.0,68,0.00,,,0.00,Wunderground v.1.15,2013-11-24 14:07:00,
2013-11-24 09:08:00,24.9,16.2,30.63,North,355,3.0,5.0,69,0.00,,,0.00,Wunderground v.1.15,2013-11-24 14:08:00,
2013-11-24 09:09:00,24.9,15.8,30.63,NNW,343,3.0,5.0,68,0.00,,,0.00,Wunderground v.1.15,2013-11-24 14:09:00,
2013-11-24 09:10:00,24.9,15.8,30.64,North,350,2.0,3.0,68,0.00,,,0.00,Wunderground v.1.15,2013-11-24 14:10:00,
2013-11-24 09:11:00,24.9,15.8,30.64,NNW,336,2.0,5.0,68,0.00,,,0.00,Wunderground v.1.15,2013-11-24 14:11:00,
2013-11-24 09:12:00,24.9,15.8,30.64,North,355,2.0,5.0,68,0.00,,,0.00,Wunderground v.1.15,2013-11-24 14:12:00,
2013-11-24 09:14:00,24.9,15.8,30.63,North,355,1.0,5.0,68,0.00,,,0.00,Wunderground v.1.15,2013-11-24 14:14:00,
2013-11-24 09:15:00,24.9,15.8,30.64,North,350,4.0,5.0,68,0.00,,,0.00,Wunderground v.1.15,2013-11-24 14:15:00,
2013-11-24 09:16:00,25.0,16.3,30.63,North,350,2.0,5.0,69,0.00,,,0.00,Wunderground v.1.15,2013-11-24 14:16:00,
2013-11-24 09:18:00,25.0,15.9,30.64,NE,44,1.0,5.0,68,0.00,,,0.00,Wunderground v.1.15,2013-11-24 14:18:00,
2013-11-24 09:19:00,25.0,15.9,30.63,NNE,33,2.0,5.0,68,0.00,,,0.00,Wunderground v.1.15,2013-11-24 14:19:00,
2013-11-24 09:21:00,25.1,16.4,30.63,NNE,29,2.0,2.0,69,0.00,,,0.00,Wunderground v.1.15,2013-11-24 14:21:00,
2013-11-24 09:22:00,25.2,16.8,30.63,NNW,330,3.0,5.0,70,0.00,,,0.00,Wunderground v.1.15,2013-11-24 14:22:00,
2013-11-24 09:23:00,25.3,16.2,30.63,NNW,329,3.0,5.0,68,0.00,,,0.00,Wunderground v.1.15,2013-11-24 14:23:00,
2013-11-24 09:25:00,25.3,16.2,30.63,North,355,5.0,7.0,68,0.00,,,0.00,Wunderground v.1.15,2013-11-24 14:25:00,
2013-11-24 09:26:00,25.3,16.2,30.63,North,350,5.0,7.0,68,0.00,,,0.00,Wunderground v.1.15,2013-11-24 14:26:00,
2013-11-24 09:27:00,25.3,15.9,30.63,North,349,5.0,7.0,67,0.00,,,0.00,Wunderground v.1.15,2013-11-24 14:27:00,
2013-11-24 09:29:00,25.3,15.9,30.63,NNW,335,1.0,5.0,67,0.00,,,0.00,Wunderground v.1.15,2013-11-24 14:29:00,
2013-11-24 09:30:00,25.2,15.8,30.63,NNW,347,3.0,5.0,67,0.00,,,0.00,Wunderground v.1.15,2013-11-24 14:30:00,
2013-11-24 09:32:00,25.2,16.1,30.63,NNE,24,2.0,5.0,68,0.00,,,0.00,Wunderground v.1.15,2013-11-24 14:32:00,
2013-11-24 09:33:00,25.2,15.8,30.63,North,351,4.0,5.0,67,0.00,,,0.00,Wunderground v.1.15,2013-11-24 14:33:00,
2013-11-24 09:35:00,25.3,16.2,30.63,NNW,348,2.0,5.0,68,0.00,,,0.00,Wunderground v.1.15,2013-11-24 14:35:00,
2013-11-24 09:36:00,25.3,16.2,30.63,North,355,1.0,5.0,68,0.00,,,0.00,Wunderground v.1.15,2013-11-24 14:36:00,
2013-11-24 09:38:00,25.4,15.6,30.63,NW,326,1.0,7.0,66,0.00,,,0.00,Wunderground v.1.15,2013-11-24 14:38:00,
2013-11-24 09:40:00,25.4,16.0,30.63,East,89,2.0,5.0,67,0.00,,,0.00,Wunderground v.1.15,2013-11-24 14:40:00,
2013-11-24 09:41:00,25.4,16.3,30.63,NE,38,2.0,5.0,68,0.00,,,0.00,Wunderground v.1.15,2013-11-24 14:41:00,
2013-11-24 09:43:00,25.5,16.1,30.63,NW,324,2.0,5.0,67,0.00,,,0.00,Wunderground v.1.15,2013-11-24 14:43:00,
2013-11-24 09:45:00,25.6,15.8,30.63,NNW,348,1.0,5.0,66,0.00,,,0.00,Wunderground v.1.15,2013-11-24 14:45:00,
2013-11-24 09:47:00,25.6,15.8,30.63,North,355,5.0,5.0,66,0.00,,,0.00,Wunderground v.1.15,2013-11-24 14:47:00,
2013-11-24 09:48:00,25.7,15.9,30.63,NNE,26,1.0,5.0,66,0.00,,,0.00,Wunderground v.1.15,2013-11-24 14:48:00,
2013-11-24 09:51:00,25.7,15.9,30.63,North,360,1.0,7.0,66,0.00,,,0.00,Wunderground v.1.15,2013-11-24 14:51:00,
2013-11-24 09:52:00,25.7,15.6,30.63,NNE,32,1.0,7.0,65,0.00,,,0.00,Wunderground v.1.15,2013-11-24 14:52:00,
2013-11-24 09:54:00,25.7,15.6,30.63,East,86,2.0,7.0,65,0.00,,,0.00,Wunderground v.1.15,2013-11-24 14:54:00,
2013-11-24 09:56:00,25.8,15.6,30.63,NW,324,2.0,7.0,65,0.00,,,0.00,Wunderground v.1.15,2013-11-24 14:56:00,
2013-11-24 09:57:00,25.8,15.6,30.63,NW,308,4.0,7.0,65,0.00,,,0.00,Wunderground v.1.15,2013-11-24 14:57:00,
2013-11-24 09:58:00,25.8,15.6,30.63,NNW,340,3.0,7.0,65,0.00,,,0.00,Wunderground v.1.15,2013-11-24 14:58:00,
2013-11-24 09:59:00,25.9,15.7,30.63,NNW,343,2.0,7.0,65,0.00,,,0.00,Wunderground v.1.15,2013-11-24 14:59:00,
2013-11-24 10:00:00,22.6,14.6,30.58,NNW,337,2.0,6.0,71,0.00,,,-99.99,WeatherLink 6.0.3,2013-11-24 15:00:00,
2013-11-24 10:02:00,25.8,15.3,30.63,NNW,347,3.0,5.0,64,0.00,,,0.00,Wunderground v.1.15,2013-11-24 15:02:00,
2013-11-24 10:04:00,25.9,15.7,30.63,North,351,0.0,5.0,65,0.00,,,0.00,Wunderground v.1.15,2013-11-24 15:04:00,
2013-11-24 10:05:00,26.0,16.2,30.63,NNE,27,1.0,5.0,66,0.00,,,0.00,Wunderground v.1.15,2013-11-24 15:05:00,
2013-11-24 10:06:00,26.1,16.3,30.63,West,268,1.0,5.0,66,0.00,,,0.00,Wunderground v.1.15,2013-11-24 15:06:00,
2013-11-24 10:07:00,26.2,16.0,30.63,North,11,2.0,5.0,65,0.00,,,0.00,Wunderground v.1.15,2013-11-24 15:07:00,
2013-11-24 10:08:00,26.2,16.0,30.63,North,10,3.0,5.0,65,0.00,,,0.00,Wunderground v.1.15,2013-11-24 15:08:00,
2013-11-24 10:09:00,26.3,16.5,30.63,NNW,345,1.0,5.0,66,0.00,,,0.00,Wunderground v.1.15,2013-11-24 15:09:00,
2013-11-24 10:10:00,26.5,16.7,30.63,NNE,17,1.0,3.0,66,0.00,,,0.00,Wunderground v.1.15,2013-11-24 15:10:00,
2013-11-24 10:12:00,26.7,16.9,30.63,North,360,0.0,3.0,66,0.00,,,0.00,Wunderground v.1.15,2013-11-24 15:12:00,
2013-11-24 10:13:00,26.8,17.0,30.63,NNE,14,3.0,4.0,66,0.00,,,0.00,Wunderground v.1.15,2013-11-24 15:13:00,
2013-11-24 10:14:00,26.9,16.3,30.63,North,360,1.0,4.0,64,0.00,,,0.00,Wunderground v.1.15,2013-11-24 15:14:00,
2013-11-24 10:16:00,27.0,16.8,30.63,North,355,2.0,4.0,65,0.00,,,0.00,Wunderground v.1.15,2013-11-24 15:16:00,
2013-11-24 10:17:00,27.0,16.4,30.63,WNW,286,2.0,4.0,64,0.00,,,0.00,Wunderground v.1.15,2013-11-24 15:17:00,
2013-11-24 10:18:00,26.9,16.0,30.63,NNE,13,1.0,4.0,63,0.00,,,0.00,Wunderground v.1.15,2013-11-24 15:18:00,
2013-11-24 10:19:00,26.9,16.3,30.63,ENE,71,1.0,2.0,64,0.00,,,0.00,Wunderground v.1.15,2013-11-24 15:19:00,
2013-11-24 10:21:00,27.0,16.1,30.63,ENE,58,2.0,2.0,63,0.00,,,0.00,Wunderground v.1.15,2013-11-24 15:21:00,
2013-11-24 10:22:00,27.1,16.5,30.63,North,9,1.0,3.0,64,0.00,,,0.00,Wunderground v.1.15,2013-11-24 15:22:00,
2013-11-24 10:23:00,27.1,16.2,30.63,North,5,4.0,4.0,63,0.00,,,0.00,Wunderground v.1.15,2013-11-24 15:23:00,
2013-11-24 10:24:00,27.1,16.2,30.63,North,351,6.0,6.0,63,0.00,,,0.00,Wunderground v.1.15,2013-11-24 15:24:00,
2013-11-24 10:25:00,27.1,16.2,30.63,North,355,3.0,6.0,63,0.00,,,0.00,Wunderground v.1.15,2013-11-24 15:25:00,
2013-11-24 10:26:00,27.0,15.7,30.63,North,5,3.0,8.0,62,0.00,,,0.00,Wunderground v.1.15,2013-11-24 15:26:00,
2013-11-24 10:28:00,27.0,15.7,30.63,NNW,334,1.0,8.0,62,0.00,,,0.00,Wunderground v.1.15,2013-11-24 15:28:00,
2013-11-24 10:30:00,26.9,15.6,30.63,West,274,2.0,6.0,62,0.00,,,0.00,Wunderground v.1.15,2013-11-24 15:30:00,
2013-11-24 10:31:00,26.8,15.5,30.63,North,5,2.0,6.0,62,0.00,,,0.00,Wunderground v.1.15,2013-11-24 15:31:00,
2013-11-24 10:33:00,26.8,15.9,30.63,West,261,2.0,6.0,63,0.00,,,0.00,Wunderground v.1.15,2013-11-24 15:33:00,
2013-11-24 10:34:00,26.9,16.0,30.63,ENE,76,1.0,6.0,63,0.00,,,0.00,Wunderground v.1.15,2013-11-24 15:34:00,
2013-11-24 10:35:00,27.0,16.1,30.63,North,355,1.0,6.0,63,0.00,,,0.00,Wunderground v.1.15,2013-11-24 15:35:00,
2013-11-24 10:36:00,27.0,16.1,30.63,North,355,1.0,6.0,63,0.00,,,0.00,Wunderground v.1.15,2013-11-24 15:36:00,
2013-11-24 10:37:00,27.2,16.3,30.63,North,360,3.0,6.0,63,0.00,,,0.00,Wunderground v.1.15,2013-11-24 15:37:00,
2013-11-24 10:38:00,27.3,16.7,30.63,North,360,1.0,6.0,64,0.00,,,0.00,Wunderground v.1.15,2013-11-24 15:38:00,
2013-11-24 10:39:00,27.4,16.4,30.63,North,5,3.0,4.0,63,0.00,,,0.00,Wunderground v.1.15,2013-11-24 15:39:00,
2013-11-24 10:40:00,27.5,16.2,30.63,NE,35,2.0,4.0,62,0.00,,,0.00,Wunderground v.1.15,2013-11-24 15:40:00,
2013-11-24 10:41:00,27.6,16.3,30.63,NE,35,2.0,4.0,62,0.00,,,0.00,Wunderground v.1.15,2013-11-24 15:41:00,
2013-11-24 10:42:00,27.7,16.0,30.63,ENE,63,1.0,5.0,61,0.00,,,0.00,Wunderground v.1.15,2013-11-24 15:42:00,
2013-11-24 10:44:00,27.8,16.1,30.63,East,91,2.0,5.0,61,0.00,,,0.00,Wunderground v.1.15,2013-11-24 15:44:00,
2013-11-24 10:45:00,27.8,15.7,30.63,NE,42,1.0,5.0,60,0.00,,,0.00,Wunderground v.1.15,2013-11-24 15:45:00,
2013-11-24 10:46:00,27.8,16.1,30.63,NNE,26,2.0,5.0,61,0.00,,,0.00,Wunderground v.1.15,2013-11-24 15:46:00,
2013-11-24 10:47:00,27.9,16.2,30.63,North,360,3.0,5.0,61,0.00,,,0.00,Wunderground v.1.15,2013-11-24 15:47:00,
2013-11-24 10:48:00,27.9,16.2,30.64,North,360,8.0,8.0,61,0.00,,,0.00,Wunderground v.1.15,2013-11-24 15:48:00,
2013-11-24 10:49:00,28.0,16.3,30.63,North,355,1.0,2.0,61,0.00,,,0.00,Wunderground v.1.15,2013-11-24 15:49:00,
2013-11-24 10:50:00,28.1,16.4,30.63,North,355,4.0,4.0,61,0.00,,,0.00,Wunderground v.1.15,2013-11-24 15:50:00,
2013-11-24 10:51:00,28.1,16.0,30.63,North,355,5.0,5.0,60,0.00,,,0.00,Wunderground v.1.15,2013-11-24 15:51:00,
2013-11-24 10:52:00,28.1,16.0,30.63,NNW,346,6.0,6.0,60,0.00,,,0.00,Wunderground v.1.15,2013-11-24 15:52:00,
2013-11-24 10:53:00,28.1,15.6,30.63,NW,323,4.0,8.0,59,0.00,,,0.00,Wunderground v.1.15,2013-11-24 15:53:00,
2013-11-24 10:54:00,28.1,15.2,30.63,NNE,32,2.0,8.0,58,0.00,,,0.00,Wunderground v.1.15,2013-11-24 15:54:00,
2013-11-24 10:55:00,28.1,15.6,30.63,NE,56,2.0,8.0,59,0.00,,,0.00,Wunderground v.1.15,2013-11-24 15:55:00,
2013-11-24 10:56:00,28.1,16.0,30.63,ENE,65,1.0,8.0,60,0.00,,,0.00,Wunderground v.1.15,2013-11-24 15:56:00,
2013-11-24 10:58:00,28.2,15.7,30.63,East,92,3.0,8.0,59,0.00,,,0.00,Wunderground v.1.15,2013-11-24 15:58:00,
2013-11-24 10:59:00,28.3,15.8,30.63,NE,39,1.0,2.0,59,0.00,,,0.00,Wunderground v.1.15,2013-11-24 15:59:00,
2013-11-24 11:00:00,28.3,16.2,30.63,East,100,6.0,6.0,60,0.00,,,0.00,Wunderground v.1.15,2013-11-24 16:00:00,
2013-11-24 11:01:00,28.4,16.3,30.63,NNW,343,6.0,8.0,60,0.00,,,0.00,Wunderground v.1.15,2013-11-24 16:01:00,
2013-11-24 11:03:00,28.3,15.8,30.63,NE,47,1.0,8.0,59,0.00,,,0.00,Wunderground v.1.15,2013-11-24 16:03:00,
2013-11-24 11:05:00,28.3,15.8,30.63,NE,44,0.0,8.0,59,0.00,,,0.00,Wunderground v.1.15,2013-11-24 16:05:00,
2013-11-24 11:06:00,28.4,15.9,30.63,North,360,1.0,8.0,59,0.00,,,0.00,Wunderground v.1.15,2013-11-24 16:06:00,
2013-11-24 11:08:00,28.5,16.0,30.63,ENE,58,1.0,8.0,59,0.00,,,0.00,Wunderground v.1.15,2013-11-24 16:08:00,
2013-11-24 11:09:00,28.5,16.0,30.63,NE,53,3.0,8.0,59,0.00,,,0.00,Wunderground v.1.15,2013-11-24 16:09:00,
2013-11-24 11:10:00,28.6,15.7,30.63,North,5,1.0,5.0,58,0.00,,,0.00,Wunderground v.1.15,2013-11-24 16:10:00,
2013-11-24 11:11:00,28.6,15.7,30.63,North,5,0.0,5.0,58,0.00,,,0.00,Wunderground v.1.15,2013-11-24 16:11:00,
2013-11-24 11:12:00,28.7,15.8,30.63,WNW,284,4.0,5.0,58,0.00,,,0.00,Wunderground v.1.15,2013-11-24 16:12:00,
2013-11-24 11:13:00,28.7,15.0,30.63,West,267,2.0,5.0,56,0.00,,,0.00,Wunderground v.1.15,2013-11-24 16:13:00,
2013-11-24 11:15:00,28.7,15.0,30.63,North,355,0.0,5.0,56,0.00,,,0.00,Wunderground v.1.15,2013-11-24 16:15:00,
2013-11-24 11:16:00,28.7,14.6,30.63,East,88,3.0,5.0,55,0.00,,,0.00,Wunderground v.1.15,2013-11-24 16:16:00,
2013-11-24 11:17:00,28.7,14.1,30.63,NNE,14,2.0,8.0,54,0.00,,,0.00,Wunderground v.1.15,2013-11-24 16:17:00,
2013-11-24 11:19:00,28.7,14.6,30.63,NNW,342,2.0,8.0,55,0.00,,,0.00,Wunderground v.1.15,2013-11-24 16:19:00,
2013-11-24 11:20:00,28.7,14.1,30.63,North,9,1.0,4.0,54,0.00,,,0.00,Wunderground v.1.15,2013-11-24 16:20:00,
2013-11-24 11:21:00,28.7,14.6,30.63,North,360,4.0,5.0,55,0.00,,,0.00,Wunderground v.1.15,2013-11-24 16:21:00,
2013-11-24 11:23:00,28.8,14.2,30.63,WNW,286,4.0,6.0,54,0.00,,,0.00,Wunderground v.1.15,2013-11-24 16:23:00,
2013-11-24 11:25:00,28.9,14.3,30.63,NE,38,1.0,6.0,54,0.00,,,0.00,Wunderground v.1.15,2013-11-24 16:25:00,
2013-11-24 11:26:00,28.9,13.9,30.63,NNW,343,3.0,6.0,53,0.00,,,0.00,Wunderground v.1.15,2013-11-24 16:26:00,
2013-11-24 11:27:00,29.0,14.4,30.63,North,5,3.0,6.0,54,0.00,,,0.00,Wunderground v.1.15,2013-11-24 16:27:00,
2013-11-24 11:29:00,29.1,14.1,30.62,North,5,1.0,6.0,53,0.00,,,0.00,Wunderground v.1.15,2013-11-24 16:29:00,
2013-11-24 11:30:00,29.1,14.5,30.62,NE,41,1.0,3.0,54,0.00,,,0.00,Wunderground v.1.15,2013-11-24 16:30:00,
2013-11-24 11:31:00,29.2,15.0,30.62,ENE,73,1.0,3.0,55,0.00,,,0.00,Wunderground v.1.15,2013-11-24 16:31:00,
2013-11-24 11:32:00,29.2,14.2,30.62,NNW,333,0.0,3.0,53,0.00,,,0.00,Wunderground v.1.15,2013-11-24 16:32:00,
2013-11-24 11:34:00,29.4,14.4,30.62,NNW,340,4.0,4.0,53,0.00,,,0.00,Wunderground v.1.15,2013-11-24 16:34:00,
2013-11-24 11:35:00,29.4,14.8,30.62,NE,51,2.0,4.0,54,0.00,,,0.00,Wunderground v.1.15,2013-11-24 16:35:00,
2013-11-24 11:36:00,29.5,14.5,30.62,ENE,78,3.0,4.0,53,0.00,,,0.00,Wunderground v.1.15,2013-11-24 16:36:00,
2013-11-24 11:37:00,29.6,14.5,30.62,North,355,6.0,6.0,53,0.00,,,0.00,Wunderground v.1.15,2013-11-24 16:37:00,
2013-11-24 11:38:00,29.7,14.2,30.62,North,355,4.0,8.0,52,0.00,,,0.00,Wunderground v.1.15,2013-11-24 16:38:00,
2013-11-24 11:40:00,29.7,13.8,30.62,ENE,77,3.0,5.0,51,0.00,,,0.00,Wunderground v.1.15,2013-11-24 16:40:00,
2013-11-24 11:42:00,29.8,13.9,30.62,East,81,3.0,5.0,51,0.00,,,0.00,Wunderground v.1.15,2013-11-24 16:42:00,
2013-11-24 11:44:00,29.8,13.4,30.62,East,89,2.0,5.0,50,0.00,,,0.00,Wunderground v.1.15,2013-11-24 16:44:00,
2013-11-24 11:45:00,29.8,12.9,30.61,ENE,68,1.0,5.0,49,0.00,,,0.00,Wunderground v.1.15,2013-11-24 16:45:00,
2013-11-24 11:46:00,29.8,13.4,30.61,NE,40,2.0,5.0,50,0.00,,,0.00,Wunderground v.1.15,2013-11-24 16:46:00,
2013-11-24 11:48:00,29.8,12.9,30.62,NNW,342,2.0,5.0,49,0.00,,,0.00,Wunderground v.1.15,2013-11-24 16:48:00,
2013-11-24 11:50:00,29.8,12.5,30.62,West,259,2.0,3.0,48,0.00,,,0.00,Wunderground v.1.15,2013-11-24 16:50:00,
2013-11-24 11:51:00,29.7,11.9,30.61,East,97,3.0,3.0,47,0.00,,,0.00,Wunderground v.1.15,2013-11-24 16:51:00,
2013-11-24 11:52:00,29.7,11.9,30.62,East,100,2.0,3.0,47,0.00,,,0.00,Wunderground v.1.15,2013-11-24 16:52:00,
2013-11-24 11:53:00,29.6,11.8,30.61,East,88,2.0,4.0,47,0.00,,,0.00,Wunderground v.1.15,2013-11-24 16:53:00,
2013-11-24 11:54:00,29.6,11.8,30.61,East,88,1.0,4.0,47,0.00,,,0.00,Wunderground v.1.15,2013-11-24 16:54:00,
2013-11-24 11:55:00,29.7,12.4,30.61,NE,53,1.0,4.0,48,0.00,,,0.00,Wunderground v.1.15,2013-11-24 16:55:00,
2013-11-24 11:56:00,29.7,12.4,30.62,North,10,3.0,5.0,48,0.00,,,0.00,Wunderground v.1.15,2013-11-24 16:56:00,
2013-11-24 11:58:00,29.8,12.0,30.61,North,351,4.0,6.0,47,0.00,,,0.00,Wunderground v.1.15,2013-11-24 16:58:00,
2013-11-24 11:59:00,29.9,13.0,30.61,NNE,21,2.0,6.0,49,0.00,,,0.00,Wunderground v.1.15,2013-11-24 16:59:00,
2013-11-24 12:00:00,29.9,13.0,30.61,NNW,339,3.0,5.0,49,0.00,,,0.00,Wunderground v.1.15,2013-11-24 17:00:00,
2013-11-24 12:02:00,30.0,12.2,30.61,ENE,70,1.0,7.0,47,0.00,,,0.00,Wunderground v.1.15,2013-11-24 17:02:00,
2013-11-24 12:03:00,30.1,12.3,30.61,ENE,57,1.0,7.0,47,0.00,,,0.00,Wunderground v.1.15,2013-11-24 17:03:00,
2013-11-24 12:04:00,30.1,12.3,30.61,ENE,70,2.0,7.0,47,0.00,,,0.00,Wunderground v.1.15,2013-11-24 17:04:00,
2013-11-24 12:05:00,30.1,11.8,30.61,NNE,33,2.0,7.0,46,0.00,,,0.00,Wunderground v.1.15,2013-11-24 17:05:00,
2013-11-24 12:06:00,30.1,12.3,30.61,East,90,3.0,7.0,47,0.00,,,0.00,Wunderground v.1.15,2013-11-24 17:06:00,
2013-11-24 12:07:00,30.1,11.3,30.61,NNE,15,1.0,7.0,45,0.00,,,0.00,Wunderground v.1.15,2013-11-24 17:07:00,
2013-11-24 12:09:00,30.2,11.9,30.61,North,9,3.0,7.0,46,0.00,,,0.00,Wunderground v.1.15,2013-11-24 17:09:00,
2013-11-24 12:10:00,30.3,12.0,30.61,NNE,28,0.0,3.0,46,0.00,,,0.00,Wunderground v.1.15,2013-11-24 17:10:00,
2013-11-24 12:11:00,30.4,11.6,30.61,NNW,332,3.0,5.0,45,0.00,,,0.00,Wunderground v.1.15,2013-11-24 17:11:00,
2013-11-24 12:14:00,30.4,11.6,30.61,East,83,8.0,9.0,45,0.00,,,0.00,Wunderground v.1.15,2013-11-24 17:14:00,
2013-11-24 12:15:00,30.3,11.0,30.61,ENE,59,2.0,9.0,44,0.00,,,0.00,Wunderground v.1.15,2013-11-24 17:15:00,
2013-11-24 12:16:00,30.4,11.1,30.61,NE,34,2.0,9.0,44,0.00,,,0.00,Wunderground v.1.15,2013-11-24 17:16:00,
2013-11-24 12:19:00,30.5,11.7,30.60,ENE,78,7.0,8.0,45,0.00,,,0.00,Wunderground v.1.15,2013-11-24 17:19:00,
2013-11-24 12:20:00,30.5,11.7,30.60,East,98,2.0,8.0,45,0.00,,,0.00,Wunderground v.1.15,2013-11-24 17:20:00,
2013-11-24 12:21:00,30.6,12.2,30.60,NE,55,1.0,8.0,46,0.00,,,0.00,Wunderground v.1.15,2013-11-24 17:21:00,
2013-11-24 12:22:00,30.6,11.7,30.60,NE,38,2.0,8.0,45,0.00,,,0.00,Wunderground v.1.15,2013-11-24 17:22:00,
2013-11-24 12:25:00,30.7,10.8,30.60,North,355,2.0,8.0,43,0.00,,,0.00,Wunderground v.1.15,2013-11-24 17:25:00,
2013-11-24 12:26:00,30.7,11.8,30.60,SE,140,3.0,8.0,45,0.00,,,0.00,Wunderground v.1.15,2013-11-24 17:26:00,
2013-11-24 12:28:00,30.8,11.9,30.60,North,351,4.0,8.0,45,0.00,,,0.00,Wunderground v.1.15,2013-11-24 17:28:00,
2013-11-24 12:30:00,30.8,10.9,30.60,East,84,2.0,7.0,43,0.00,,,0.00,Wunderground v.1.15,2013-11-24 17:30:00,
2013-11-24 12:31:00,30.8,11.4,30.60,NE,45,1.0,7.0,44,0.00,,,0.00,Wunderground v.1.15,2013-11-24 17:31:00,
2013-11-24 12:32:00,30.8,11.4,30.60,NE,38,0.0,7.0,44,0.00,,,0.00,Wunderground v.1.15,2013-11-24 17:32:00,
2013-11-24 12:33:00,30.8,11.4,30.60,NE,36,2.0,7.0,44,0.00,,,0.00,Wunderground v.1.15,2013-11-24 17:33:00,
2013-11-24 12:34:00,30.8,11.4,30.60,ENE,78,2.0,7.0,44,0.00,,,0.00,Wunderground v.1.15,2013-11-24 17:34:00,
2013-11-24 12:35:00,30.9,11.5,30.60,North,9,2.0,7.0,44,0.00,,,0.00,Wunderground v.1.15,2013-11-24 17:35:00,
2013-11-24 12:36:00,31.0,11.6,30.60,East,80,4.0,7.0,44,0.00,,,0.00,Wunderground v.1.15,2013-11-24 17:36:00,
2013-11-24 12:37:00,31.0,11.6,30.60,East,86,1.0,7.0,44,0.00,,,0.00,Wunderground v.1.15,2013-11-24 17:37:00,
2013-11-24 12:39:00,31.1,10.6,30.60,NNE,16,5.0,7.0,42,0.00,,,0.00,Wunderground v.1.15,2013-11-24 17:39:00,
2013-11-24 12:40:00,31.0,10.6,30.60,North,360,2.0,5.0,42,0.00,,,0.00,Wunderground v.1.15,2013-11-24 17:40:00,
2013-11-24 12:42:00,31.1,11.2,30.60,North,360,5.0,6.0,43,0.00,,,0.00,Wunderground v.1.15,2013-11-24 17:42:00,
2013-11-24 12:43:00,31.2,11.8,30.60,East,88,3.0,6.0,44,0.00,,,0.00,Wunderground v.1.15,2013-11-24 17:43:00,
2013-11-24 12:44:00,31.2,11.3,30.59,NNW,336,0.0,6.0,43,0.00,,,0.00,Wunderground v.1.15,2013-11-24 17:44:00,
2013-11-24 12:45:00,31.3,11.4,30.59,NNE,13,1.0,6.0,43,0.00,,,0.00,Wunderground v.1.15,2013-11-24 17:45:00,
2013-11-24 12:46:00,31.3,10.8,30.59,NE,44,1.0,6.0,42,0.00,,,0.00,Wunderground v.1.15,2013-11-24 17:46:00,
2013-11-24 12:47:00,31.2,11.3,30.59,NNE,26,2.0,6.0,43,0.00,,,0.00,Wunderground v.1.15,2013-11-24 17:47:00,
2013-11-24 12:49:00,31.2,10.2,30.59,NNE,19,1.0,7.0,41,0.00,,,0.00,Wunderground v.1.15,2013-11-24 17:49:00,
2013-11-24 12:50:00,31.3,10.8,30.59,East,96,3.0,3.0,42,0.00,,,0.00,Wunderground v.1.15,2013-11-24 17:50:00,
2013-11-24 12:52:00,31.2,10.7,30.59,East,90,2.0,3.0,42,0.00,,,0.00,Wunderground v.1.15,2013-11-24 17:52:00,
2013-11-24 12:53:00,31.2,10.2,30.59,ENE,60,5.0,9.0,41,0.00,,,0.00,Wunderground v.1.15,2013-11-24 17:53:00,
2013-11-24 12:54:00,31.2,9.6,30.59,NE,55,1.0,9.0,40,0.00,,,0.00,Wunderground v.1.15,2013-11-24 17:54:00,
2013-11-24 12:55:00,31.2,9.1,30.59,North,360,5.0,9.0,39,0.00,,,0.00,Wunderground v.1.15,2013-11-24 17:55:00,
2013-11-24 12:56:00,31.2,9.1,30.59,North,355,3.0,9.0,39,0.00,,,0.00,Wunderground v.1.15,2013-11-24 17:56:00,
2013-11-24 12:57:00,31.1,9.0,30.58,North,355,3.0,9.0,39,0.00,,,0.00,Wunderground v.1.15,2013-11-24 17:57:00,
2013-11-24 12:59:00,31.2,10.2,30.59,ENE,72,3.0,9.0,41,0.00,,,0.00,Wunderground v.1.15,2013-11-24 17:59:00,
2013-11-24 13:00:00,31.4,10.4,30.59,ESE,112,4.0,7.0,41,0.00,,,0.00,Wunderground v.1.15,2013-11-24 18:00:00,
2013-11-24 13:02:00,31.4,9.8,30.59,East,79,3.0,7.0,40,0.00,,,0.00,Wunderground v.1.15,2013-11-24 18:02:00,
2013-11-24 13:03:00,31.4,10.4,30.58,East,81,3.0,7.0,41,0.00,,,0.00,Wunderground v.1.15,2013-11-24 18:03:00,
2013-11-24 13:04:00,31.5,10.5,30.58,East,88,2.0,7.0,41,0.00,,,0.00,Wunderground v.1.15,2013-11-24 18:04:00,
2013-11-24 13:06:00,31.5,9.4,30.58,ENE,67,2.0,7.0,39,0.00,,,0.00,Wunderground v.1.15,2013-11-24 18:06:00,
2013-11-24 13:07:00,31.5,9.9,30.58,ENE,58,6.0,7.0,40,0.00,,,0.00,Wunderground v.1.15,2013-11-24 18:07:00,
2013-11-24 13:08:00,31.5,9.9,30.58,NNW,348,3.0,7.0,40,0.00,,,0.00,Wunderground v.1.15,2013-11-24 18:08:00,
2013-11-24 13:09:00,31.6,10.6,30.58,NNW,345,4.0,7.0,41,0.00,,,0.00,Wunderground v.1.15,2013-11-24 18:09:00,
2013-11-24 13:10:00,31.6,9.4,30.58,NNW,346,3.0,8.0,39,0.00,,,0.00,Wunderground v.1.15,2013-11-24 18:10:00,
2013-11-24 13:12:00,31.6,8.9,30.58,North,5,4.0,8.0,38,0.00,,,0.00,Wunderground v.1.15,2013-11-24 18:12:00,
2013-11-24 13:13:00,31.6,8.3,30.58,North,5,1.0,8.0,37,0.00,,,0.00,Wunderground v.1.15,2013-11-24 18:13:00,
2013-11-24 13:14:00,31.6,8.9,30.58,ENE,57,3.0,8.0,38,0.00,,,0.00,Wunderground v.1.15,2013-11-24 18:14:00,
2013-11-24 13:16:00,31.7,9.5,30.58,North,9,2.0,8.0,39,0.00,,,0.00,Wunderground v.1.15,2013-11-24 18:16:00,
2013-11-24 13:17:00,31.8,9.0,30.58,NNW,344,2.0,8.0,38,0.00,,,0.00,Wunderground v.1.15,2013-11-24 18:17:00,
2013-11-24 13:19:00,31.9,9.7,30.58,North,360,2.0,8.0,39,0.00,,,0.00,Wunderground v.1.15,2013-11-24 18:19:00,
2013-11-24 13:20:00,32.0,9.8,30.58,ENE,61,3.0,3.0,39,0.00,,,0.00,Wunderground v.1.15,2013-11-24 18:20:00,
2013-11-24 13:21:00,32.0,9.2,30.58,NE,54,2.0,4.0,38,0.00,,,0.00,Wunderground v.1.15,2013-11-24 18:21:00,
2013-11-24 13:22:00,32.0,9.2,30.57,NE,44,2.0,4.0,38,0.00,,,0.00,Wunderground v.1.15,2013-11-24 18:22:00,
2013-11-24 13:24:00,32.1,8.7,30.57,NNE,19,1.0,5.0,37,0.00,,,0.00,Wunderground v.1.15,2013-11-24 18:24:00,
2013-11-24 13:25:00,32.1,8.7,30.57,NNE,22,1.0,5.0,37,0.00,,,0.00,Wunderground v.1.15,2013-11-24 18:25:00,
2013-11-24 13:27:00,32.2,8.8,30.57,ENE,62,0.0,5.0,37,0.00,,,0.00,Wunderground v.1.15,2013-11-24 18:27:00,
2013-11-24 13:28:00,32.2,8.2,30.57,NNW,340,3.0,5.0,36,0.00,,,0.00,Wunderground v.1.15,2013-11-24 18:28:00,
2013-11-24 13:30:00,32.2,8.8,30.57,WNW,298,1.0,2.0,37,0.00,,,0.00,Wunderground v.1.15,2013-11-24 18:30:00,
2013-11-24 13:31:00,32.2,8.8,30.57,NE,45,2.0,8.0,37,0.00,,,-99.99,WeatherLink 6.0.3,2013-11-24 18:31:00,
2013-11-24 13:32:00,32.1,8.7,30.57,East,84,2.0,8.0,37,0.00,,,0.00,Wunderground v.1.15,2013-11-24 18:32:00,
2013-11-24 13:33:00,32.1,8.7,30.57,East,86,4.0,8.0,37,0.00,,,0.00,Wunderground v.1.15,2013-11-24 18:33:00,
2013-11-24 13:34:00,32.1,8.7,30.57,ESE,103,3.0,8.0,37,0.00,,,0.00,Wunderground v.1.15,2013-11-24 18:34:00,
2013-11-24 13:35:00,32.0,8.0,30.57,NE,47,1.0,8.0,36,0.00,,,0.00,Wunderground v.1.15,2013-11-24 18:35:00,
2013-11-24 13:36:00,32.0,8.6,30.57,NNE,23,2.0,8.0,37,0.00,,,0.00,Wunderground v.1.15,2013-11-24 18:36:00,
2013-11-24 13:38:00,32.0,8.6,30.57,NNW,340,2.0,8.0,37,0.00,,,0.00,Wunderground v.1.15,2013-11-24 18:38:00,
2013-11-24 13:39:00,32.1,8.7,30.57,NNE,14,2.0,2.0,37,0.00,,,0.00,Wunderground v.1.15,2013-11-24 18:39:00,
2013-11-24 13:40:00,32.1,8.7,30.56,NNE,33,2.0,3.0,37,0.00,,,0.00,Wunderground v.1.15,2013-11-24 18:40:00,
2013-11-24 13:41:00,32.1,8.7,30.56,NNE,33,2.0,3.0,37,0.00,,,0.00,Wunderground v.1.15,2013-11-24 18:41:00,
2013-11-24 13:43:00,32.4,9.0,30.56,North,9,4.0,5.0,37,0.00,,,0.00,Wunderground v.1.15,2013-11-24 18:43:00,
2013-11-24 13:44:00,32.4,9.0,30.56,NNW,337,3.0,6.0,37,0.00,,,0.00,Wunderground v.1.15,2013-11-24 18:44:00,
2013-11-24 13:45:00,32.5,9.1,30.56,North,5,5.0,6.0,37,0.00,,,0.00,Wunderground v.1.15,2013-11-24 18:45:00,
2013-11-24 13:46:00,32.5,7.8,30.56,North,355,4.0,6.0,35,0.00,,,0.00,Wunderground v.1.15,2013-11-24 18:46:00,
2013-11-24 13:49:00,32.6,9.2,30.56,NNW,348,5.0,5.0,37,0.00,,,0.00,Wunderground v.1.15,2013-11-24 18:49:00,
2013-11-24 13:50:00,32.6,8.6,30.56,North,5,2.0,5.0,36,0.00,,,0.00,Wunderground v.1.15,2013-11-24 18:50:00,
2013-11-24 13:51:00,32.6,8.6,30.56,NE,46,3.0,5.0,36,0.00,,,0.00,Wunderground v.1.15,2013-11-24 18:51:00,
2013-11-24 13:52:00,32.6,8.6,30.56,North,355,3.0,5.0,36,0.00,,,0.00,Wunderground v.1.15,2013-11-24 18:52:00,
2013-11-24 14:00:00,28.3,15.8,30.63,North,0,2.0,8.0,59,0.00,,,-99.99,WeatherLink 6.0.3,2013-11-24 19:00:00,
2013-11-24 14:30:00,29.1,14.1,30.62,North,0,2.0,8.0,53,0.00,,,-99.99,WeatherLink 6.0.3,2013-11-24 19:30:00,
2013-11-24 15:00:00,29.9,13.0,30.61,North,0,3.0,10.0,49,0.00,,,-99.99,WeatherLink 6.0.3,2013-11-24 20:00:00,
2013-11-24 15:30:00,30.8,10.9,30.60,North,0,2.0,10.0,43,0.00,,,-99.99,WeatherLink 6.0.3,2013-11-24 20:30:00,
2013-11-24 16:00:00,31.3,10.3,30.59,North,0,2.0,9.0,41,0.00,,,-99.99,WeatherLink 6.0.3,2013-11-24 21:00:00,
2013-11-24 16:30:00,32.2,8.8,30.57,NE,45,2.0,8.0,37,0.00,,,-99.99,WeatherLink 6.0.3,2013-11-24 21:30:00,
2013-11-24 17:00:00,32.7,7.4,30.55,North,0,3.0,8.0,34,0.00,,,-99.99,WeatherLink 6.0.3,2013-11-24 22:00:00,
2013-11-24 17:30:00,33.4,9.3,30.54,North,0,2.0,7.0,36,0.00,,,-99.99,WeatherLink 6.0.3,2013-11-24 22:30:00,
2013-11-24 18:00:00,33.8,8.4,30.53,NE,45,2.0,9.0,34,0.00,,,-99.99,WeatherLink 6.0.3,2013-11-24 23:00:00,
2013-11-24 18:30:00,33.7,8.3,30.54,North,0,2.0,6.0,34,0.00,,,-99.99,WeatherLink 6.0.3,2013-11-24 23:30:00,
2013-11-24 19:00:00,33.4,7.3,30.54,North,0,2.0,6.0,33,0.00,,,-99.99,WeatherLink 6.0.3,2013-11-25 00:00:00,
2013-11-24 19:30:00,33.1,7.7,30.54,NE,45,2.0,7.0,34,0.00,,,-99.99,WeatherLink 6.0.3,2013-11-25 00:30:00,
2013-11-24 20:00:00,32.3,7.0,30.53,North,0,2.0,6.0,34,0.00,,,-99.99,WeatherLink 6.0.3,2013-11-25 01:00:00,
2013-11-24 20:30:00,31.5,8.2,30.54,North,0,1.0,5.0,37,0.00,,,-99.99,WeatherLink 6.0.3,2013-11-25 01:30:00,
2013-11-24 21:00:00,30.5,8.4,30.55,North,0,1.0,3.0,39,0.00,,,-99.99,WeatherLink 6.0.3,2013-11-25 02:00:00,
2013-11-24 21:30:00,29.8,8.4,30.56,NNW,337,0.0,2.0,40,0.00,,,-99.99,WeatherLink 6.0.3,2013-11-25 02:30:00,
2013-11-24 22:00:00,29.5,9.2,30.57,NNW,337,1.0,2.0,42,0.00,,,-99.99,WeatherLink 6.0.3,2013-11-25 03:00:00,
2013-11-24 22:30:00,28.8,10.1,30.57,NNW,337,1.0,2.0,45,0.00,,,-99.99,WeatherLink 6.0.3,2013-11-25 03:30:00,
2013-11-24 23:00:00,28.4,11.2,30.56,NNW,337,1.0,3.0,48,0.00,,,-99.99,WeatherLink 6.0.3,2013-11-25 04:00:00,
2013-11-24 23:30:00,28.3,11.1,30.56,NNW,337,1.0,4.0,48,0.00,,,-99.99,WeatherLink 6.0.3,2013-11-25 04:30:00,